Wetterdaten: Mittwoch, 29.05.2019
Datum Zeit Temp. Aussen Temp. o. S. +5cm Feuchte Auss Luftdruck Regen Sonnenschein Regendauer Solar Windben Empfang
29.05.2019 00:00 11,1 C 8,9 C 8,3 C 85 % 1016,4 hPa 0,0 l/m 0 min 0 min 0 W/m 6,4 km/h (2 Bft) 95,74 %
29.05.2019 00:02 11,1 C 8,9 C 8,3 C 85 % 1016,4 hPa 0,0 l/m 0 min 0 min 0 W/m 3,2 km/h (1 Bft) 20,00 %
29.05.2019 00:04 11,0 C 8,9 C 8,3 C 85 % 1016,5 hPa 0,0 l/m 0 min 0 min 0 W/m 6,4 km/h (2 Bft) 71,11 %
29.05.2019 00:08 10,9 C 8,9 C 8,3 C 85 % 1016,5 hPa 0,0 l/m 0 min 0 min 0 W/m 6,4 km/h (2 Bft) 97,14 %
29.05.2019 00:10 10,8 C 8,9 C 8,3 C 85 % 1016,5 hPa 0,0 l/m 0 min 0 min 0 W/m 6,4 km/h (2 Bft) 97,14 %
29.05.2019 00:12 10,8 C 8,9 C 8,3 C 85 % 1016,5 hPa 0,0 l/m 0 min 0 min 0 W/m 3,2 km/h (1 Bft) 97,87 %
29.05.2019 00:14 10,7 C 8,9 C 8,3 C 85 % 1016,5 hPa 0,0 l/m 0 min 0 min 0 W/m 6,4 km/h (2 Bft) 97,87 %
29.05.2019 00:16 10,7 C 8,9 C 8,3 C 85 % 1016,6 hPa 0,2 l/m 0 min 0 min 0 W/m 6,4 km/h (2 Bft) 97,87 %
29.05.2019 00:18 10,6 C 8,9 C 8,3 C 85 % 1016,6 hPa 0,0 l/m 0 min 0 min 0 W/m 0,0 km/h (0 Bft) 97,83 %
29.05.2019 00:20 10,6 C 8,9 C 8,3 C 85 % 1016,6 hPa 0,0 l/m 0 min 0 min 0 W/m 0,0 km/h (0 Bft) 97,87 %
29.05.2019 00:22 10,5 C 8,9 C 8,3 C 85 % 1016,6 hPa 0,0 l/m 0 min 0 min 0 W/m 3,2 km/h (1 Bft) 93,62 %
29.05.2019 00:24 10,5 C 8,3 C 8,3 C 85 % 1016,6 hPa 0,0 l/m 0 min 0 min 0 W/m 3,2 km/h (1 Bft) 93,62 %
29.05.2019 00:26 10,4 C 8,3 C 8,3 C 85 % 1016,6 hPa 0,0 l/m 0 min 0 min 0 W/m 3,2 km/h (1 Bft) 95,74 %
29.05.2019 00:28 10,4 C 8,3 C 7,8 C 85 % 1016,6 hPa 0,0 l/m 0 min 0 min 0 W/m 3,2 km/h (1 Bft) 95,74 %
29.05.2019 00:30 10,3 C 8,3 C 7,8 C 85 % 1016,7 hPa 0,0 l/m 0 min 0 min 0 W/m 3,2 km/h (1 Bft) 95,65 %
29.05.2019 00:32 10,3 C 8,3 C 7,8 C 85 % 1016,7 hPa 0,0 l/m 0 min 0 min 0 W/m 3,2 km/h (1 Bft) 95,74 %
29.05.2019 00:34 10,2 C 8,3 C 7,8 C 85 % 1016,7 hPa 0,0 l/m 0 min 0 min 0 W/m 9,7 km/h (2 Bft) 95,74 %
29.05.2019 00:36 10,2 C 8,9 C 7,8 C 85 % 1016,8 hPa 0,0 l/m 0 min 0 min 0 W/m 6,4 km/h (2 Bft) 95,74 %
29.05.2019 00:38 10,1 C 8,9 C 7,8 C 85 % 1016,9 hPa 0,0 l/m 0 min 0 min 0 W/m 6,4 km/h (2 Bft) 95,74 %
29.05.2019 00:40 10,1 C 8,3 C 7,8 C 85 % 1016,8 hPa 0,0 l/m 0 min 0 min 0 W/m 6,4 km/h (2 Bft) 93,62 %
29.05.2019 00:42 10,0 C 8,9 C 7,8 C 85 % 1016,8 hPa 0,0 l/m 0 min 0 min 0 W/m 6,4 km/h (2 Bft) 95,65 %
29.05.2019 00:44 10,0 C 8,3 C 7,8 C 85 % 1016,9 hPa 0,0 l/m 0 min 0 min 0 W/m 3,2 km/h (1 Bft) 95,74 %
29.05.2019 00:46 9,9 C 8,3 C 7,8 C 85 % 1016,8 hPa 0,0 l/m 0 min 0 min 0 W/m 6,4 km/h (2 Bft) 93,62 %
29.05.2019 00:48 9,9 C 8,3 C 7,8 C 85 % 1016,9 hPa 0,0 l/m 0 min 0 min 0 W/m 3,2 km/h (1 Bft) 93,62 %
29.05.2019 00:50 9,8 C 8,3 C 7,8 C 85 % 1016,9 hPa 0,0 l/m 0 min 0 min 0 W/m 6,4 km/h (2 Bft) 95,74 %
29.05.2019 00:52 9,8 C 8,3 C 7,8 C 85 % 1016,9 hPa 0,0 l/m 0 min 0 min 0 W/m 6,4 km/h (2 Bft) 95,74 %
29.05.2019 00:54 9,8 C 8,3 C 7,8 C 85 % 1017,0 hPa 0,0 l/m 0 min 0 min 0 W/m 6,4 km/h (2 Bft) 95,65 %
29.05.2019 00:56 9,7 C 8,3 C 7,8 C 85 % 1017,0 hPa 0,0 l/m 0 min 0 min 0 W/m 3,2 km/h (1 Bft) 97,87 %
29.05.2019 00:58 9,7 C 8,3 C 7,8 C 85 % 1017,0 hPa 0,0 l/m 0 min 0 min 0 W/m 3,2 km/h (1 Bft) 93,62 %
29.05.2019 01:00 9,6 C 8,3 C 7,8 C 85 % 1017,1 hPa 0,0 l/m 0 min 0 min 0 W/m 3,2 km/h (1 Bft) 97,87 %
29.05.2019 01:02 9,6 C 8,3 C 7,8 C 85 % 1017,0 hPa 0,0 l/m 0 min 0 min 0 W/m 3,2 km/h (1 Bft) 97,87 %
29.05.2019 01:04 9,6 C 8,3 C 7,8 C 85 % 1017,0 hPa 0,0 l/m 0 min 0 min 0 W/m 3,2 km/h (1 Bft) 97,87 %
29.05.2019 01:06 9,5 C 8,3 C 7,8 C 85 % 1017,2 hPa 0,0 l/m 0 min 0 min 0 W/m 3,2 km/h (1 Bft) 96,55 %
29.05.2019 01:08 9,5 C 8,3 C 7,8 C 85 % 1017,2 hPa 0,0 l/m 0 min 0 min 0 W/m 6,4 km/h (2 Bft) 97,14 %
29.05.2019 01:10 9,4 C 8,3 C 7,8 C 85 % 1017,3 hPa 0,0 l/m 0 min 0 min 0 W/m 9,7 km/h (2 Bft) 97,87 %
29.05.2019 01:12 9,4 C 8,3 C 7,8 C 85 % 1017,3 hPa 0,0 l/m 0 min 0 min 0 W/m 9,7 km/h (2 Bft) 95,74 %
29.05.2019 01:14 9,4 C 8,3 C 7,8 C 85 % 1017,3 hPa 0,0 l/m 0 min 0 min 0 W/m 3,2 km/h (1 Bft) 97,87 %
29.05.2019 01:16 9,4 C 8,3 C 7,8 C 85 % 1017,3 hPa 0,0 l/m 0 min 0 min 0 W/m 3,2 km/h (1 Bft) 97,83 %
29.05.2019 01:18 9,3 C 8,3 C 7,8 C 85 % 1017,4 hPa 0,0 l/m 0 min 0 min 0 W/m 3,2 km/h (1 Bft) 100,00 %
29.05.2019 01:20 9,3 C 8,3 C 7,8 C 85 % 1017,4 hPa 0,0 l/m 0 min 0 min 0 W/m 6,4 km/h (2 Bft) 95,74 %
29.05.2019 01:22 9,3 C 8,3 C 7,8 C 85 % 1017,4 hPa 0,0 l/m 0 min 0 min 0 W/m 3,2 km/h (1 Bft) 97,87 %
29.05.2019 01:24 9,3 C 8,3 C 7,8 C 85 % 1017,4 hPa 0,0 l/m 0 min 0 min 0 W/m 3,2 km/h (1 Bft) 97,87 %
29.05.2019 01:26 9,2 C 7,8 C 7,8 C 85 % 1017,4 hPa 0,0 l/m 0 min 0 min 0 W/m 6,4 km/h (2 Bft) 100,00 %
29.05.2019 01:28 9,2 C 7,8 C 7,2 C 85 % 1017,4 hPa 0,0 l/m 0 min 0 min 0 W/m 6,4 km/h (2 Bft) 100,00 %
29.05.2019 01:30 9,2 C 7,8 C 7,2 C 85 % 1017,4 hPa 0,0 l/m 0 min 0 min 0 W/m 6,4 km/h (2 Bft) 95,74 %
29.05.2019 01:32 9,2 C 7,8 C 7,2 C 85 % 1017,5 hPa 0,0 l/m 0 min 0 min 0 W/m 6,4 km/h (2 Bft) 97,87 %
29.05.2019 01:34 9,1 C 7,8 C 7,8 C 85 % 1017,4 hPa 0,0 l/m 0 min 0 min 0 W/m 6,4 km/h (2 Bft) 97,87 %
29.05.2019 01:36 9,1 C 7,8 C 7,2 C 85 % 1017,4 hPa 0,0 l/m 0 min 0 min 0 W/m 3,2 km/h (1 Bft) 96,61 %
29.05.2019 01:38 9,1 C 7,8 C 7,2 C 85 % 1017,4 hPa 0,0 l/m 0 min 0 min 0 W/m 6,4 km/h (2 Bft) 100,00 %
29.05.2019 01:40 9,1 C 7,8 C 7,2 C 85 % 1017,5 hPa 0,0 l/m 0 min 0 min 0 W/m 3,2 km/h (1 Bft) 95,65 %
29.05.2019 01:42 9,1 C 7,8 C 7,2 C 85 % 1017,5 hPa 0,0 l/m 0 min 0 min 0 W/m 3,2 km/h (1 Bft) 97,87 %
29.05.2019 01:44 9,0 C 7,8 C 7,2 C 85 % 1017,5 hPa 0,0 l/m 0 min 0 min 0 W/m 3,2 km/h (1 Bft) 93,62 %
29.05.2019 01:46 9,0 C 7,8 C 7,2 C 85 % 1017,6 hPa 0,0 l/m 0 min 0 min 0 W/m 3,2 km/h (1 Bft) 95,74 %
29.05.2019 01:48 9,0 C 7,8 C 7,2 C 85 % 1017,6 hPa 0,0 l/m 0 min 0 min 0 W/m 6,4 km/h (2 Bft) 97,87 %
29.05.2019 01:50 8,9 C 7,8 C 7,2 C 85 % 1017,8 hPa 0,0 l/m 0 min 0 min 0 W/m 3,2 km/h (1 Bft) 97,87 %
29.05.2019 01:52 8,9 C 7,8 C 7,2 C 85 % 1017,7 hPa 0,0 l/m 0 min 0 min 0 W/m 3,2 km/h (1 Bft) 95,65 %
29.05.2019 01:54 8,9 C 7,2 C 7,2 C 85 % 1017,6 hPa 0,0 l/m 0 min 0 min 0 W/m 3,2 km/h (1 Bft) 97,87 %
29.05.2019 01:56 8,9 C 7,2 C 7,2 C 85 % 1017,8 hPa 0,0 l/m 0 min 0 min 0 W/m 0,0 km/h (0 Bft) 97,87 %
29.05.2019 01:58 8,9 C 7,2 C 6,7 C 85 % 1017,9 hPa 0,0 l/m 0 min 0 min 0 W/m 0,0 km/h (0 Bft) 97,87 %
29.05.2019 02:00 8,8 C 7,2 C 6,7 C 85 % 1017,9 hPa 0,0 l/m 0 min 0 min 0 W/m 3,2 km/h (1 Bft) 97,87 %
29.05.2019 02:02 8,8 C 7,2 C 6,7 C 85 % 1017,9 hPa 0,0 l/m 0 min 0 min 0 W/m 3,2 km/h (1 Bft) 97,87 %
29.05.2019 02:04 8,8 C 7,2 C 6,7 C 85 % 1017,9 hPa 0,0 l/m 0 min 0 min 0 W/m 0,0 km/h (0 Bft) 97,83 %
29.05.2019 02:06 8,8 C 7,2 C 6,7 C 85 % 1017,9 hPa 0,0 l/m 0 min 0 min 0 W/m 0,0 km/h (0 Bft) 100,00 %
29.05.2019 02:08 8,7 C 7,2 C 6,7 C 85 % 1017,9 hPa 0,0 l/m 0 min 0 min 0 W/m 0,0 km/h (0 Bft) 100,00 %
29.05.2019 02:10 8,7 C 7,2 C 6,7 C 85 % 1018,0 hPa 0,0 l/m 0 min 0 min 0 W/m 0,0 km/h (0 Bft) 100,00 %
29.05.2019 02:12 8,7 C 7,2 C 6,7 C 85 % 1018,0 hPa 0,0 l/m 0 min 0 min 0 W/m 0,0 km/h (0 Bft) 97,87 %
29.05.2019 02:14 8,7 C 6,7 C 6,7 C 85 % 1017,9 hPa 0,0 l/m 0 min 0 min 0 W/m 0,0 km/h (0 Bft) 100,00 %
29.05.2019 02:16 8,7 C 6,7 C 6,1 C 85 % 1017,9 hPa 0,0 l/m 0 min 0 min 0 W/m 3,2 km/h (1 Bft) 97,87 %
29.05.2019 02:18 8,6 C 6,7 C 6,1 C 85 % 1017,9 hPa 0,0 l/m 0 min 0 min 0 W/m 3,2 km/h (1 Bft) 97,87 %
29.05.2019 02:20 8,6 C 6,7 C 6,1 C 85 % 1017,9 hPa 0,0 l/m 0 min 0 min 0 W/m 0,0 km/h (0 Bft) 100,00 %
29.05.2019 02:22 8,6 C 6,7 C 6,1 C 85 % 1018,0 hPa 0,0 l/m 0 min 0 min 0 W/m 0,0 km/h (0 Bft) 97,87 %
29.05.2019 02:24 8,5 C 6,7 C 6,1 C 85 % 1018,0 hPa 0,0 l/m 0 min 0 min 0 W/m 0,0 km/h (0 Bft) 100,00 %
29.05.2019 02:26 8,5 C 6,7 C 6,1 C 85 % 1018,0 hPa 0,0 l/m 0 min 0 min 0 W/m 0,0 km/h (0 Bft) 100,00 %
29.05.2019 02:28 8,4 C 6,7 C 6,1 C 85 % 1018,0 hPa 0,0 l/m 0 min 0 min 0 W/m 0,0 km/h (0 Bft) 100,00 %
29.05.2019 02:30 8,4 C 6,1 C 6,1 C 85 % 1018,0 hPa 0,0 l/m 0 min 0 min 0 W/m 0,0 km/h (0 Bft) 100,00 %
29.05.2019 02:32 8,4 C 6,1 C 6,1 C 85 % 1018,0 hPa 0,0 l/m 0 min 0 min 0 W/m 0,0 km/h (0 Bft) 100,00 %
29.05.2019 02:34 8,4 C 6,1 C 6,1 C 85 % 1018,0 hPa 0,0 l/m 0 min 0 min 0 W/m 0,0 km/h (0 Bft) 100,00 %
29.05.2019 02:36 8,3 C 6,1 C 6,1 C 85 % 1018,1 hPa 0,0 l/m 0 min 0 min 0 W/m 0,0 km/h (0 Bft) 100,00 %
29.05.2019 02:38 8,3 C 6,1 C 5,6 C 85 % 1018,2 hPa 0,0 l/m 0 min 0 min 0 W/m 0,0 km/h (0 Bft) 100,00 %
29.05.2019 02:40 8,3 C 6,1 C 5,6 C 85 % 1018,2 hPa 0,0 l/m 0 min 0 min 0 W/m 0,0 km/h (0 Bft) 100,00 %
29.05.2019 02:42 8,3 C 6,1 C 5,6 C 85 % 1018,2 hPa 0,0 l/m 0 min 0 min 0 W/m 0,0 km/h (0 Bft) 95,74 %
29.05.2019 02:44 8,2 C 6,1 C 5,6 C 85 % 1018,1 hPa 0,0 l/m 0 min 0 min 0 W/m 0,0 km/h (0 Bft) 100,00 %
29.05.2019 02:46 8,2 C 6,1 C 5,6 C 85 % 1018,1 hPa 0,0 l/m 0 min 0 min 0 W/m 0,0 km/h (0 Bft) 100,00 %
29.05.2019 02:48 8,1 C 6,1 C 5,6 C 85 % 1018,2 hPa 0,0 l/m 0 min 0 min 0 W/m 0,0 km/h (0 Bft) 100,00 %
29.05.2019 02:50 8,1 C 6,1 C 5,6 C 85 % 1018,2 hPa 0,0 l/m 0 min 0 min 0 W/m 0,0 km/h (0 Bft) 100,00 %
29.05.2019 02:52 8,1 C 6,1 C 5,6 C 85 % 1018,2 hPa 0,0 l/m 0 min 0 min 0 W/m 0,0 km/h (0 Bft) 100,00 %
29.05.2019 02:54 8,1 C 6,1 C 5,6 C 85 % 1018,2 hPa 0,0 l/m 0 min 0 min 0 W/m 3,2 km/h (1 Bft) 100,00 %
29.05.2019 02:56 8,0 C 6,1 C 5,6 C 85 % 1018,2 hPa 0,0 l/m 0 min 0 min 0 W/m 0,0 km/h (0 Bft) 100,00 %
29.05.2019 02:58 8,0 C 6,1 C 5,6 C 85 % 1018,3 hPa 0,0 l/m 0 min 0 min 0 W/m 0,0 km/h (0 Bft) 100,00 %
29.05.2019 03:00 7,9 C 6,1 C 5,6 C 85 % 1018,2 hPa 0,0 l/m 0 min 0 min 0 W/m 0,0 km/h (0 Bft) 100,00 %
29.05.2019 03:02 7,9 C 6,1 C 5,6 C 85 % 1018,3 hPa 0,0 l/m 0 min 0 min 0 W/m 0,0 km/h (0 Bft) 100,00 %
29.05.2019 03:04 7,9 C 6,1 C 5,6 C 85 % 1018,3 hPa 0,0 l/m 0 min 0 min 0 W/m 0,0 km/h (0 Bft) 100,00 %
29.05.2019 03:06 7,8 C 6,1 C 5,6 C 86 % 1018,3 hPa 0,0 l/m 0 min 0 min 0 W/m 0,0 km/h (0 Bft) 100,00 %
29.05.2019 03:08 7,8 C 6,1 C 5,6 C 86 % 1018,3 hPa 0,0 l/m 0 min 0 min 0 W/m 0,0 km/h (0 Bft) 100,00 %
29.05.2019 03:10 7,8 C 6,1 C 5,6 C 86 % 1018,3 hPa 0,0 l/m 0 min 0 min 0 W/m 0,0 km/h (0 Bft) 95,74 %
29.05.2019 03:12 7,7 C 6,1 C 5,6 C 86 % 1018,4 hPa 0,0 l/m 0 min 0 min 0 W/m 0,0 km/h (0 Bft) 100,00 %
29.05.2019 03:14 7,7 C 6,1 C 5,6 C 86 % 1018,4 hPa 0,0 l/m 0 min 0 min 0 W/m 0,0 km/h (0 Bft) 100,00 %
29.05.2019 03:16 7,7 C 6,1 C 5,6 C 86 % 1018,5 hPa 0,0 l/m 0 min 0 min 0 W/m 3,2 km/h (1 Bft) 100,00 %
29.05.2019 03:18 7,7 C 6,1 C 5,6 C 86 % 1018,5 hPa 0,0 l/m 0 min 0 min 0 W/m 0,0 km/h (0 Bft) 100,00 %
29.05.2019 03:20 7,6 C 6,1 C 5,6 C 86 % 1018,5 hPa 0,0 l/m 0 min 0 min 0 W/m 0,0 km/h (0 Bft) 97,87 %
29.05.2019 03:22 7,6 C 6,1 C 5,6 C 87 % 1018,5 hPa 0,0 l/m 0 min 0 min 0 W/m 3,2 km/h (1 Bft) 100,00 %
29.05.2019 03:24 7,6 C 6,1 C 5,6 C 87 % 1018,5 hPa 0,0 l/m 0 min 0 min 0 W/m 0,0 km/h (0 Bft) 97,87 %
29.05.2019 03:26 7,5 C 6,1 C 5,6 C 87 % 1018,5 hPa 0,0 l/m 0 min 0 min 0 W/m 0,0 km/h (0 Bft) 97,83 %
29.05.2019 03:28 7,5 C 6,1 C 5,6 C 87 % 1018,5 hPa 0,0 l/m 0 min 0 min 0 W/m 0,0 km/h (0 Bft) 95,74 %
29.05.2019 03:30 7,5 C 6,1 C 5,6 C 87 % 1018,6 hPa 0,0 l/m 0 min 0 min 0 W/m 0,0 km/h (0 Bft) 95,74 %
29.05.2019 03:32 7,4 C 6,1 C 5,6 C 87 % 1018,6 hPa 0,0 l/m 0 min 0 min 0 W/m 0,0 km/h (0 Bft) 95,74 %
29.05.2019 03:34 7,4 C 6,1 C 5,6 C 87 % 1018,7 hPa 0,0 l/m 0 min 0 min 0 W/m 0,0 km/h (0 Bft) 91,49 %
29.05.2019 03:36 7,4 C 6,1 C 5,6 C 87 % 1018,6 hPa 0,0 l/m 0 min 0 min 0 W/m 0,0 km/h (0 Bft) 96,55 %
29.05.2019 03:38 7,4 C 6,1 C 5,6 C 87 % 1018,6 hPa 0,0 l/m 0 min 0 min 0 W/m 3,2 km/h (1 Bft) 94,29 %
29.05.2019 03:40 7,3 C 6,1 C 5,6 C 87 % 1018,7 hPa 0,0 l/m 0 min 0 min 0 W/m 0,0 km/h (0 Bft) 95,74 %
29.05.2019 03:42 7,3 C 6,1 C 5,6 C 87 % 1018,7 hPa 0,0 l/m 0 min 0 min 0 W/m 3,2 km/h (1 Bft) 97,87 %
29.05.2019 03:44 7,3 C 6,1 C 5,6 C 87 % 1018,8 hPa 0,0 l/m 0 min 0 min 0 W/m 0,0 km/h (0 Bft) 95,74 %
29.05.2019 03:46 7,3 C 6,1 C 5,6 C 87 % 1018,8 hPa 0,0 l/m 0 min 0 min 0 W/m 3,2 km/h (1 Bft) 93,62 %
29.05.2019 03:48 7,3 C 6,1 C 5,6 C 88 % 1018,8 hPa 0,0 l/m 0 min 0 min 0 W/m 3,2 km/h (1 Bft) 95,65 %
29.05.2019 03:50 7,2 C 6,1 C 5,6 C 88 % 1018,8 hPa 0,0 l/m 0 min 0 min 0 W/m 0,0 km/h (0 Bft) 95,74 %
29.05.2019 03:52 7,2 C 6,1 C 5,0 C 88 % 1018,8 hPa 0,0 l/m 0 min 0 min 0 W/m 0,0 km/h (0 Bft) 93,62 %
29.05.2019 03:54 7,2 C 5,6 C 5,0 C 88 % 1018,8 hPa 0,0 l/m 0 min 0 min 0 W/m 0,0 km/h (0 Bft) 93,62 %
29.05.2019 03:56 7,2 C 5,6 C 5,0 C 88 % 1018,8 hPa 0,0 l/m 0 min 0 min 0 W/m 0,0 km/h (0 Bft) 95,74 %
29.05.2019 03:58 7,1 C 5,6 C 5,0 C 88 % 1018,9 hPa 0,0 l/m 0 min 0 min 0 W/m 0,0 km/h (0 Bft) 93,62 %
29.05.2019 04:00 7,1 C 5,6 C 5,0 C 88 % 1018,9 hPa 0,0 l/m 0 min 0 min 0 W/m 3,2 km/h (1 Bft) 95,65 %
29.05.2019 04:05 7,1 C 5,6 C 5,0 C 88 % 1018,9 hPa 0,0 l/m 0 min 0 min 0 W/m 3,2 km/h (1 Bft) 96,88 %
29.05.2019 04:06 7,0 C 5,6 C 5,0 C 88 % 1018,9 hPa 0,0 l/m 0 min 0 min 0 W/m 0,0 km/h (0 Bft) 95,83 %
29.05.2019 04:08 7,0 C 5,6 C 5,0 C 88 % 1018,9 hPa 0,0 l/m 0 min 0 min 0 W/m 0,0 km/h (0 Bft) 94,44 %
29.05.2019 04:10 7,0 C 5,0 C 5,0 C 88 % 1018,9 hPa 0,0 l/m 0 min 0 min 0 W/m 3,2 km/h (1 Bft) 95,65 %
29.05.2019 04:12 7,0 C 5,6 C 5,0 C 88 % 1019,0 hPa 0,0 l/m 0 min 0 min 0 W/m 0,0 km/h (0 Bft) 95,65 %
29.05.2019 04:14 6,9 C 5,0 C 5,0 C 88 % 1019,0 hPa 0,0 l/m 0 min 0 min 0 W/m 3,2 km/h (1 Bft) 97,87 %
29.05.2019 04:16 6,9 C 5,0 C 4,4 C 88 % 1019,1 hPa 0,0 l/m 0 min 0 min 0 W/m 0,0 km/h (0 Bft) 95,74 %
29.05.2019 04:18 6,9 C 5,0 C 4,4 C 88 % 1019,1 hPa 0,0 l/m 0 min 0 min 0 W/m 0,0 km/h (0 Bft) 93,62 %
29.05.2019 04:20 6,8 C 5,0 C 4,4 C 88 % 1019,1 hPa 0,0 l/m 0 min 0 min 0 W/m 0,0 km/h (0 Bft) 95,74 %
29.05.2019 04:22 6,8 C 5,0 C 4,4 C 88 % 1019,2 hPa 0,0 l/m 0 min 0 min 0 W/m 3,2 km/h (1 Bft) 97,83 %
29.05.2019 04:24 6,8 C 5,0 C 4,4 C 88 % 1019,2 hPa 0,0 l/m 0 min 0 min 0 W/m 0,0 km/h (0 Bft) 97,87 %
29.05.2019 04:26 6,8 C 5,0 C 4,4 C 88 % 1019,2 hPa 0,0 l/m 0 min 0 min 0 W/m 0,0 km/h (0 Bft) 97,87 %
29.05.2019 04:28 6,7 C 5,0 C 4,4 C 88 % 1019,2 hPa 0,0 l/m 0 min 0 min 0 W/m 0,0 km/h (0 Bft) 95,74 %
29.05.2019 04:30 6,7 C 5,0 C 4,4 C 88 % 1019,2 hPa 0,0 l/m 0 min 0 min 0 W/m 0,0 km/h (0 Bft) 97,87 %
29.05.2019 04:32 6,7 C 5,0 C 4,4 C 88 % 1019,2 hPa 0,0 l/m 0 min 0 min 0 W/m 0,0 km/h (0 Bft) 95,74 %
29.05.2019 04:34 6,7 C 5,0 C 4,4 C 88 % 1019,2 hPa 0,0 l/m 0 min 0 min 0 W/m 0,0 km/h (0 Bft) 97,83 %
29.05.2019 04:36 6,6 C 4,4 C 4,4 C 88 % 1019,3 hPa 0,0 l/m 0 min 0 min 0 W/m 0,0 km/h (0 Bft) 95,00 %
29.05.2019 04:38 6,6 C 4,4 C 4,4 C 88 % 1019,3 hPa 0,0 l/m 0 min 0 min 0 W/m 0,0 km/h (0 Bft) 91,43 %
29.05.2019 04:40 6,6 C 4,4 C 4,4 C 88 % 1019,3 hPa 0,0 l/m 0 min 0 min 0 W/m 0,0 km/h (0 Bft) 97,87 %
29.05.2019 04:42 6,6 C 4,4 C 4,4 C 89 % 1019,3 hPa 0,0 l/m 0 min 0 min 0 W/m 0,0 km/h (0 Bft) 97,87 %
29.05.2019 04:44 6,5 C 4,4 C 4,4 C 89 % 1019,3 hPa 0,0 l/m 0 min 0 min 0 W/m 0,0 km/h (0 Bft) 97,87 %
29.05.2019 04:46 6,4 C 4,4 C 4,4 C 89 % 1019,1 hPa 0,0 l/m 0 min 0 min 0 W/m 0,0 km/h (0 Bft) 95,65 %
29.05.2019 04:48 6,4 C 4,4 C 4,4 C 89 % 1019,2 hPa 0,0 l/m 0 min 0 min 0 W/m 0,0 km/h (0 Bft) 95,74 %
29.05.2019 04:50 6,4 C 4,4 C 4,4 C 89 % 1019,2 hPa 0,0 l/m 0 min 0 min 0 W/m 0,0 km/h (0 Bft) 97,87 %
29.05.2019 04:52 6,4 C 4,4 C 3,9 C 89 % 1019,3 hPa 0,0 l/m 0 min 0 min 0 W/m 0,0 km/h (0 Bft) 97,87 %
29.05.2019 04:54 6,4 C 4,4 C 3,9 C 89 % 1019,2 hPa 0,0 l/m 0 min 0 min 0 W/m 0,0 km/h (0 Bft) 97,87 %
29.05.2019 04:56 6,3 C 4,4 C 3,9 C 89 % 1019,3 hPa 0,0 l/m 0 min 0 min 0 W/m 0,0 km/h (0 Bft) 97,87 %
29.05.2019 04:58 6,3 C 4,4 C 3,9 C 89 % 1019,4 hPa 0,0 l/m 0 min 0 min 0 W/m 0,0 km/h (0 Bft) 97,83 %
29.05.2019 05:00 6,3 C 4,4 C 3,9 C 89 % 1019,4 hPa 0,0 l/m 0 min 0 min 0 W/m 0,0 km/h (0 Bft) 97,87 %
29.05.2019 05:02 6,3 C 4,4 C 3,9 C 89 % 1019,4 hPa 0,0 l/m 0 min 0 min 0 W/m 0,0 km/h (0 Bft) 95,74 %
29.05.2019 05:04 6,2 C 4,4 C 3,9 C 89 % 1019,4 hPa 0,0 l/m 0 min 0 min 0 W/m 0,0 km/h (0 Bft) 97,87 %
29.05.2019 05:05 6,2 C 4,4 C 3,9 C 89 % 1019,4 hPa 0,0 l/m 0 min 0 min 0 W/m 0,0 km/h (0 Bft) 99,12 %
29.05.2019 05:10 6,1 C 4,4 C 3,9 C 89 % 1019,5 hPa 0,0 l/m 0 min 0 min 0 W/m 0,0 km/h (0 Bft) 98,25 %
29.05.2019 05:12 6,1 C 4,4 C 3,9 C 89 % 1019,6 hPa 0,0 l/m 0 min 0 min 0 W/m 0,0 km/h (0 Bft) 91,67 %
29.05.2019 05:14 6,1 C 4,4 C 3,9 C 89 % 1019,6 hPa 0,0 l/m 0 min 0 min 0 W/m 0,0 km/h (0 Bft) 100,00 %
29.05.2019 05:16 6,1 C 4,4 C 3,9 C 89 % 1019,6 hPa 0,0 l/m 0 min 0 min 0 W/m 0,0 km/h (0 Bft) 92,31 %
29.05.2019 05:18 6,1 C 4,4 C 3,9 C 89 % 1019,6 hPa 0,0 l/m 0 min 0 min 0 W/m 0,0 km/h (0 Bft) 97,96 %
29.05.2019 05:20 6,0 C 4,4 C 3,9 C 89 % 1019,7 hPa 0,0 l/m 0 min 0 min 0 W/m 0,0 km/h (0 Bft) 97,87 %
29.05.2019 05:22 6,0 C 4,4 C 3,9 C 89 % 1019,6 hPa 0,0 l/m 0 min 0 min 0 W/m 0,0 km/h (0 Bft) 97,83 %
29.05.2019 05:24 5,9 C 3,9 C 3,9 C 89 % 1019,6 hPa 0,0 l/m 0 min 0 min 0 W/m 0,0 km/h (0 Bft) 97,87 %
29.05.2019 05:26 5,9 C 3,9 C 3,9 C 89 % 1019,6 hPa 0,0 l/m 0 min 0 min 0 W/m 0,0 km/h (0 Bft) 97,92 %
29.05.2019 05:28 5,9 C 3,9 C 3,9 C 89 % 1019,6 hPa 0,0 l/m 0 min 0 min 0 W/m 0,0 km/h (0 Bft) 93,62 %
29.05.2019 05:30 5,9 C 3,9 C 3,9 C 89 % 1019,6 hPa 0,0 l/m 0 min 0 min 0 W/m 0,0 km/h (0 Bft) 97,83 %
29.05.2019 05:32 5,8 C 3,9 C 3,9 C 89 % 1019,6 hPa 0,0 l/m 0 min 0 min 1 W/m 0,0 km/h (0 Bft) 97,87 %
29.05.2019 05:34 5,8 C 3,9 C 3,9 C 89 % 1019,7 hPa 0,0 l/m 0 min 0 min 5 W/m 0,0 km/h (0 Bft) 97,87 %
29.05.2019 05:36 5,8 C 3,9 C 3,9 C 89 % 1019,8 hPa 0,0 l/m 0 min 0 min 5 W/m 0,0 km/h (0 Bft) 95,74 %
29.05.2019 05:38 5,8 C 3,9 C 3,9 C 89 % 1019,7 hPa 0,0 l/m 0 min 0 min 5 W/m 0,0 km/h (0 Bft) 93,62 %
29.05.2019 05:40 5,7 C 3,9 C 3,9 C 89 % 1019,8 hPa 0,0 l/m 0 min 0 min 6 W/m 0,0 km/h (0 Bft) 97,83 %
29.05.2019 05:42 5,7 C 3,9 C 3,9 C 89 % 1019,8 hPa 0,0 l/m 0 min 0 min 7 W/m 0,0 km/h (0 Bft) 97,87 %
29.05.2019 05:44 5,7 C 3,9 C 3,9 C 89 % 1019,7 hPa 0,0 l/m 0 min 0 min 7 W/m 0,0 km/h (0 Bft) 95,74 %
29.05.2019 05:46 5,7 C 3,9 C 3,9 C 89 % 1019,8 hPa 0,0 l/m 0 min 0 min 7 W/m 0,0 km/h (0 Bft) 97,87 %
29.05.2019 05:48 5,7 C 3,9 C 3,9 C 89 % 1019,8 hPa 0,0 l/m 0 min 0 min 7 W/m 0,0 km/h (0 Bft) 95,74 %
29.05.2019 05:50 5,6 C 3,9 C 3,9 C 89 % 1019,9 hPa 0,0 l/m 0 min 0 min 9 W/m 0,0 km/h (0 Bft) 97,87 %
29.05.2019 05:52 5,6 C 3,9 C 3,9 C 89 % 1019,8 hPa 0,0 l/m 0 min 0 min 9 W/m 0,0 km/h (0 Bft) 97,83 %
29.05.2019 05:54 5,6 C 3,9 C 3,9 C 90 % 1019,9 hPa 0,0 l/m 0 min 0 min 9 W/m 0,0 km/h (0 Bft) 100,00 %
29.05.2019 05:56 5,6 C 3,9 C 3,9 C 90 % 1019,9 hPa 0,0 l/m 0 min 0 min 11 W/m 0,0 km/h (0 Bft) 100,00 %
29.05.2019 05:58 5,6 C 3,9 C 3,9 C 90 % 1019,9 hPa 0,0 l/m 0 min 0 min 11 W/m 0,0 km/h (0 Bft) 100,00 %
29.05.2019 06:00 5,5 C 3,9 C 3,9 C 90 % 1019,9 hPa 0,0 l/m 0 min 0 min 11 W/m 0,0 km/h (0 Bft) 100,00 %
29.05.2019 06:02 5,5 C 3,9 C 3,9 C 90 % 1019,9 hPa 0,0 l/m 0 min 0 min 12 W/m 0,0 km/h (0 Bft) 100,00 %
29.05.2019 06:04 5,5 C 4,4 C 3,9 C 90 % 1020,0 hPa 0,0 l/m 0 min 0 min 12 W/m 0,0 km/h (0 Bft) 100,00 %
29.05.2019 06:08 5,5 C 3,9 C 3,9 C 90 % 1020,0 hPa 0,0 l/m 0 min 0 min 12 W/m 0,0 km/h (0 Bft) 100,00 %
29.05.2019 06:10 5,4 C 4,4 C 3,9 C 90 % 1019,9 hPa 0,0 l/m 0 min 0 min 13 W/m 0,0 km/h (0 Bft) 100,00 %
29.05.2019 06:12 5,4 C 4,4 C 3,9 C 90 % 1020,0 hPa 0,0 l/m 0 min 0 min 14 W/m 0,0 km/h (0 Bft) 100,00 %
29.05.2019 06:14 5,4 C 4,4 C 3,9 C 90 % 1020,0 hPa 0,0 l/m 0 min 0 min 14 W/m 0,0 km/h (0 Bft) 97,87 %
29.05.2019 06:16 5,4 C 4,4 C 3,9 C 90 % 1020,0 hPa 0,0 l/m 0 min 0 min 14 W/m 0,0 km/h (0 Bft) 100,00 %
29.05.2019 06:18 5,4 C 4,4 C 3,9 C 90 % 1020,1 hPa 0,0 l/m 0 min 0 min 15 W/m 0,0 km/h (0 Bft) 100,00 %
29.05.2019 06:20 5,4 C 4,4 C 3,9 C 90 % 1020,1 hPa 0,0 l/m 0 min 0 min 16 W/m 0,0 km/h (0 Bft) 100,00 %
29.05.2019 06:22 5,4 C 4,4 C 3,9 C 90 % 1020,1 hPa 0,0 l/m 0 min 0 min 16 W/m 0,0 km/h (0 Bft) 100,00 %
29.05.2019 06:24 5,4 C 4,4 C 3,9 C 91 % 1020,1 hPa 0,0 l/m 0 min 0 min 16 W/m 0,0 km/h (0 Bft) 100,00 %
29.05.2019 06:26 5,4 C 4,4 C 3,9 C 91 % 1020,1 hPa 0,0 l/m 0 min 0 min 18 W/m 0,0 km/h (0 Bft) 100,00 %
29.05.2019 06:28 5,4 C 4,4 C 3,9 C 91 % 1020,2 hPa 0,0 l/m 0 min 0 min 18 W/m 0,0 km/h (0 Bft) 100,00 %
29.05.2019 06:30 5,4 C 4,4 C 3,9 C 91 % 1020,3 hPa 0,0 l/m 0 min 0 min 18 W/m 0,0 km/h (0 Bft) 100,00 %
29.05.2019 06:32 5,4 C 4,4 C 3,9 C 91 % 1020,3 hPa 0,0 l/m 0 min 0 min 18 W/m 0,0 km/h (0 Bft) 97,87 %
29.05.2019 06:34 5,4 C 4,4 C 3,9 C 91 % 1020,3 hPa 0,0 l/m 0 min 0 min 19 W/m 0,0 km/h (0 Bft) 97,87 %
29.05.2019 06:36 5,4 C 5,0 C 4,4 C 91 % 1020,4 hPa 0,0 l/m 0 min 0 min 19 W/m 0,0 km/h (0 Bft) 100,00 %
29.05.2019 06:38 5,4 C 5,0 C 4,4 C 91 % 1020,4 hPa 0,0 l/m 0 min 0 min 19 W/m 0,0 km/h (0 Bft) 100,00 %
29.05.2019 06:40 5,4 C 5,0 C 4,4 C 91 % 1020,4 hPa 0,0 l/m 0 min 0 min 19 W/m 0,0 km/h (0 Bft) 97,30 %
29.05.2019 06:42 5,4 C 5,0 C 4,4 C 91 % 1020,5 hPa 0,0 l/m 0 min 0 min 21 W/m 0,0 km/h (0 Bft) 94,83 %
29.05.2019 06:44 5,4 C 5,0 C 4,4 C 91 % 1020,5 hPa 0,0 l/m 0 min 0 min 21 W/m 0,0 km/h (0 Bft) 97,87 %
29.05.2019 06:46 5,4 C 5,0 C 4,4 C 92 % 1020,5 hPa 0,0 l/m 0 min 0 min 21 W/m 0,0 km/h (0 Bft) 97,14 %
29.05.2019 06:48 5,4 C 5,0 C 4,4 C 92 % 1020,6 hPa 0,0 l/m 0 min 0 min 21 W/m 0,0 km/h (0 Bft) 95,74 %
29.05.2019 06:50 5,4 C 5,0 C 4,4 C 92 % 1020,5 hPa 0,0 l/m 0 min 0 min 22 W/m 0,0 km/h (0 Bft) 97,87 %
29.05.2019 06:52 5,4 C 5,6 C 4,4 C 92 % 1020,6 hPa 0,0 l/m 0 min 0 min 23 W/m 0,0 km/h (0 Bft) 96,55 %
29.05.2019 06:54 5,5 C 5,6 C 4,4 C 92 % 1020,6 hPa 0,0 l/m 0 min 0 min 23 W/m 0,0 km/h (0 Bft) 94,29 %
29.05.2019 06:56 5,5 C 5,6 C 4,4 C 92 % 1020,6 hPa 0,0 l/m 0 min 0 min 23 W/m 0,0 km/h (0 Bft) 98,31 %
29.05.2019 06:58 5,5 C 5,6 C 4,4 C 92 % 1020,6 hPa 0,0 l/m 0 min 0 min 24 W/m 0,0 km/h (0 Bft) 93,62 %
29.05.2019 07:00 5,6 C 5,6 C 5,0 C 92 % 1020,6 hPa 0,0 l/m 0 min 0 min 25 W/m 0,0 km/h (0 Bft) 95,74 %
29.05.2019 07:02 5,6 C 6,1 C 5,0 C 93 % 1020,7 hPa 0,0 l/m 0 min 0 min 25 W/m 0,0 km/h (0 Bft) 96,67 %
29.05.2019 07:04 5,6 C 6,1 C 5,0 C 93 % 1020,6 hPa 0,0 l/m 0 min 0 min 25 W/m 0,0 km/h (0 Bft) 93,62 %
29.05.2019 07:06 5,6 C 6,1 C 5,0 C 93 % 1020,7 hPa 0,0 l/m 0 min 0 min 26 W/m 0,0 km/h (0 Bft) 98,28 %
29.05.2019 07:08 5,7 C 6,1 C 5,0 C 93 % 1020,8 hPa 0,0 l/m 0 min 0 min 26 W/m 0,0 km/h (0 Bft) 97,87 %
29.05.2019 07:10 5,7 C 6,1 C 5,0 C 93 % 1020,8 hPa 0,0 l/m 0 min 0 min 26 W/m 0,0 km/h (0 Bft) 95,92 %
29.05.2019 07:12 5,8 C 6,1 C 5,0 C 93 % 1020,8 hPa 0,0 l/m 0 min 0 min 27 W/m 3,2 km/h (1 Bft) 95,74 %
29.05.2019 07:14 5,8 C 6,7 C 5,6 C 93 % 1020,8 hPa 0,0 l/m 0 min 0 min 28 W/m 0,0 km/h (0 Bft) 95,74 %
29.05.2019 07:16 5,9 C 6,7 C 5,6 C 93 % 1020,9 hPa 0,0 l/m 0 min 0 min 28 W/m 0,0 km/h (0 Bft) 93,62 %
29.05.2019 07:18 5,9 C 6,7 C 5,6 C 93 % 1020,8 hPa 0,0 l/m 0 min 0 min 28 W/m 0,0 km/h (0 Bft) 94,29 %
29.05.2019 07:20 6,0 C 6,7 C 5,6 C 94 % 1020,9 hPa 0,0 l/m 0 min 0 min 29 W/m 3,2 km/h (1 Bft) 95,74 %
29.05.2019 07:22 6,1 C 6,7 C 5,6 C 94 % 1020,9 hPa 0,0 l/m 0 min 0 min 30 W/m 0,0 km/h (0 Bft) 93,10 %
29.05.2019 07:24 6,1 C 6,7 C 5,6 C 94 % 1020,9 hPa 0,0 l/m 0 min 0 min 30 W/m 0,0 km/h (0 Bft) 100,00 %
29.05.2019 07:26 6,2 C 7,2 C 5,6 C 94 % 1020,9 hPa 0,0 l/m 0 min 0 min 30 W/m 0,0 km/h (0 Bft) 97,87 %
29.05.2019 07:28 6,2 C 7,2 C 5,6 C 94 % 1021,0 hPa 0,0 l/m 0 min 0 min 31 W/m 3,2 km/h (1 Bft) 94,92 %
29.05.2019 07:30 6,3 C 7,2 C 5,6 C 94 % 1021,0 hPa 0,0 l/m 0 min 0 min 32 W/m 3,2 km/h (1 Bft) 95,65 %
29.05.2019 07:32 6,4 C 7,2 C 6,1 C 94 % 1021,0 hPa 0,0 l/m 0 min 0 min 32 W/m 3,2 km/h (1 Bft) 97,22 %
29.05.2019 07:34 6,4 C 7,2 C 6,1 C 94 % 1021,0 hPa 0,0 l/m 0 min 0 min 32 W/m 0,0 km/h (0 Bft) 97,83 %
29.05.2019 07:36 6,4 C 7,2 C 6,1 C 94 % 1021,0 hPa 0,0 l/m 0 min 0 min 33 W/m 0,0 km/h (0 Bft) 98,31 %
29.05.2019 07:38 6,5 C 7,2 C 6,1 C 94 % 1021,0 hPa 0,0 l/m 0 min 0 min 33 W/m 0,0 km/h (0 Bft) 97,87 %
29.05.2019 07:40 6,6 C 7,2 C 6,1 C 94 % 1020,9 hPa 0,0 l/m 0 min 0 min 33 W/m 0,0 km/h (0 Bft) 97,14 %
29.05.2019 07:42 6,6 C 7,8 C 6,1 C 95 % 1021,0 hPa 0,0 l/m 0 min 0 min 33 W/m 0,0 km/h (0 Bft) 97,87 %
29.05.2019 07:44 6,7 C 7,8 C 6,1 C 95 % 1021,0 hPa 0,0 l/m 0 min 0 min 35 W/m 3,2 km/h (1 Bft) 97,87 %
29.05.2019 07:46 6,7 C 7,8 C 6,1 C 95 % 1021,0 hPa 0,0 l/m 0 min 0 min 35 W/m 0,0 km/h (0 Bft) 97,83 %
29.05.2019 07:48 6,8 C 7,8 C 6,1 C 95 % 1021,0 hPa 0,0 l/m 0 min 0 min 35 W/m 3,2 km/h (1 Bft) 98,31 %
29.05.2019 07:50 6,8 C 7,8 C 6,7 C 95 % 1021,1 hPa 0,0 l/m 0 min 0 min 35 W/m 0,0 km/h (0 Bft) 97,14 %
29.05.2019 07:52 6,9 C 8,3 C 6,7 C 95 % 1021,2 hPa 0,0 l/m 0 min 0 min 37 W/m 3,2 km/h (1 Bft) 100,00 %
29.05.2019 07:54 6,9 C 8,3 C 6,7 C 95 % 1021,2 hPa 0,0 l/m 0 min 0 min 37 W/m 3,2 km/h (1 Bft) 100,00 %
29.05.2019 07:56 7,1 C 8,3 C 6,7 C 95 % 1021,2 hPa 0,0 l/m 0 min 0 min 37 W/m 3,2 km/h (1 Bft) 100,00 %
29.05.2019 07:58 7,1 C 8,3 C 6,7 C 95 % 1021,3 hPa 0,0 l/m 0 min 0 min 38 W/m 3,2 km/h (1 Bft) 100,00 %
29.05.2019 08:00 7,2 C 8,9 C 6,7 C 95 % 1021,3 hPa 0,0 l/m 0 min 0 min 39 W/m 0,0 km/h (0 Bft) 100,00 %
29.05.2019 08:02 7,2 C 11,1 C 6,7 C 95 % 1021,3 hPa 0,0 l/m 0 min 0 min 39 W/m 0,0 km/h (0 Bft) 100,00 %
29.05.2019 08:04 7,3 C 12,8 C 6,7 C 95 % 1021,3 hPa 0,0 l/m 0 min 0 min 39 W/m 0,0 km/h (0 Bft) 98,28 %
29.05.2019 08:06 7,4 C 14,4 C 7,2 C 95 % 1021,3 hPa 0,0 l/m 0 min 0 min 40 W/m 0,0 km/h (0 Bft) 97,87 %
29.05.2019 08:08 7,5 C 15,0 C 7,2 C 95 % 1021,3 hPa 0,0 l/m 0 min 0 min 40 W/m 3,2 km/h (1 Bft) 97,87 %
29.05.2019 08:10 7,6 C 16,1 C 7,2 C 96 % 1021,3 hPa 0,0 l/m 0 min 0 min 40 W/m 0,0 km/h (0 Bft) 97,87 %
29.05.2019 08:12 7,7 C 16,7 C 7,2 C 96 % 1021,3 hPa 0,0 l/m 0 min 0 min 40 W/m 0,0 km/h (0 Bft) 95,74 %
29.05.2019 08:14 7,9 C 17,2 C 7,2 C 96 % 1021,3 hPa 0,0 l/m 0 min 0 min 41 W/m 0,0 km/h (0 Bft) 97,87 %
29.05.2019 08:16 8,0 C 16,7 C 7,8 C 96 % 1021,4 hPa 0,0 l/m 0 min 0 min 42 W/m 6,4 km/h (2 Bft) 94,29 %
29.05.2019 08:18 8,2 C 16,7 C 7,8 C 96 % 1021,4 hPa 0,0 l/m 0 min 0 min 42 W/m 6,4 km/h (2 Bft) 98,28 %
29.05.2019 08:20 8,4 C 16,1 C 8,3 C 96 % 1021,4 hPa 0,0 l/m 0 min 0 min 42 W/m 9,7 km/h (2 Bft) 97,87 %
29.05.2019 08:22 8,6 C 16,7 C 8,3 C 96 % 1021,4 hPa 0,0 l/m 0 min 0 min 43 W/m 6,4 km/h (2 Bft) 97,14 %
29.05.2019 08:24 8,7 C 17,2 C 8,9 C 96 % 1021,3 hPa 0,0 l/m 0 min 0 min 44 W/m 6,4 km/h (2 Bft) 97,87 %
29.05.2019 08:26 8,9 C 16,7 C 8,9 C 96 % 1021,4 hPa 0,0 l/m 0 min 0 min 44 W/m 9,7 km/h (2 Bft) 97,87 %
29.05.2019 08:28 9,2 C 16,7 C 9,4 C 96 % 1021,4 hPa 0,0 l/m 0 min 0 min 44 W/m 9,7 km/h (2 Bft) 96,55 %
29.05.2019 08:30 9,3 C 17,2 C 11,1 C 96 % 1021,4 hPa 0,0 l/m 0 min 0 min 44 W/m 6,4 km/h (2 Bft) 97,87 %
29.05.2019 08:32 9,5 C 17,2 C 13,9 C 96 % 1021,4 hPa 0,0 l/m 0 min 0 min 46 W/m 6,4 km/h (2 Bft) 93,62 %
29.05.2019 08:34 9,7 C 17,8 C 16,1 C 96 % 1021,5 hPa 0,0 l/m 0 min 0 min 46 W/m 6,4 km/h (2 Bft) 97,14 %
29.05.2019 08:36 9,8 C 17,8 C 17,8 C 96 % 1021,5 hPa 0,0 l/m 0 min 0 min 47 W/m 6,4 km/h (2 Bft) 98,31 %
29.05.2019 08:38 10,0 C 18,3 C 18,3 C 95 % 1021,5 hPa 0,0 l/m 0 min 0 min 51 W/m 6,4 km/h (2 Bft) 97,87 %
29.05.2019 08:40 10,2 C 18,9 C 19,4 C 95 % 1021,5 hPa 0,0 l/m 0 min 0 min 59 W/m 6,4 km/h (2 Bft) 97,14 %
29.05.2019 08:42 10,3 C 19,4 C 20,0 C 95 % 1021,5 hPa 0,0 l/m 0 min 0 min 72 W/m 6,4 km/h (2 Bft) 100,00 %
29.05.2019 08:44 10,6 C 19,4 C 20,6 C 94 % 1021,6 hPa 0,0 l/m 0 min 0 min 93 W/m 6,4 km/h (2 Bft) 100,00 %
29.05.2019 08:46 10,7 C 18,9 C 21,1 C 94 % 1021,6 hPa 0,0 l/m 0 min 0 min 119 W/m 6,4 km/h (2 Bft) 100,00 %
29.05.2019 08:48 10,9 C 18,9 C 21,1 C 93 % 1021,6 hPa 0,0 l/m 0 min 0 min 152 W/m 6,4 km/h (2 Bft) 100,00 %
29.05.2019 08:50 11,1 C 18,3 C 21,1 C 92 % 1021,6 hPa 0,0 l/m 0 min 0 min 192 W/m 6,4 km/h (2 Bft) 100,00 %
29.05.2019 08:52 11,2 C 18,3 C 21,7 C 90 % 1021,6 hPa 0,0 l/m 0 min 0 min 235 W/m 6,4 km/h (2 Bft) 100,00 %
29.05.2019 08:54 11,4 C 17,8 C 21,1 C 89 % 1021,7 hPa 0,0 l/m 2 min 0 min 282 W/m 9,7 km/h (2 Bft) 97,87 %
29.05.2019 08:56 11,6 C 17,8 C 21,1 C 87 % 1021,7 hPa 0,0 l/m 2 min 0 min 325 W/m 9,7 km/h (2 Bft) 97,83 %
29.05.2019 08:58 11,8 C 17,8 C 21,1 C 85 % 1021,7 hPa 0,0 l/m 2 min 0 min 369 W/m 9,7 km/h (2 Bft) 94,92 %
29.05.2019 09:00 11,9 C 17,8 C 20,6 C 84 % 1021,7 hPa 0,0 l/m 2 min 0 min 414 W/m 9,7 km/h (2 Bft) 94,29 %
29.05.2019 09:02 12,1 C 18,9 C 21,7 C 82 % 1021,7 hPa 0,0 l/m 2 min 0 min 450 W/m 6,4 km/h (2 Bft) 96,61 %
29.05.2019 09:04 12,2 C 19,4 C 21,7 C 82 % 1021,7 hPa 0,0 l/m 2 min 0 min 478 W/m 3,2 km/h (1 Bft) 97,83 %
29.05.2019 09:06 12,4 C 20,0 C 21,7 C 81 % 1021,8 hPa 0,0 l/m 2 min 0 min 501 W/m 6,4 km/h (2 Bft) 95,74 %
29.05.2019 09:08 12,6 C 19,4 C 22,2 C 80 % 1021,8 hPa 0,0 l/m 2 min 0 min 517 W/m 6,4 km/h (2 Bft) 97,87 %
29.05.2019 09:10 12,7 C 19,4 C 22,2 C 79 % 1021,8 hPa 0,0 l/m 2 min 0 min 524 W/m 6,4 km/h (2 Bft) 97,14 %
29.05.2019 09:12 12,9 C 20,0 C 22,8 C 79 % 1021,8 hPa 0,0 l/m 2 min 0 min 533 W/m 6,4 km/h (2 Bft) 98,31 %
29.05.2019 09:14 13,0 C 20,0 C 22,8 C 78 % 1021,8 hPa 0,0 l/m 2 min 0 min 541 W/m 6,4 km/h (2 Bft) 97,14 %
29.05.2019 09:16 13,1 C 19,4 C 22,8 C 77 % 1021,8 hPa 0,0 l/m 2 min 0 min 548 W/m 6,4 km/h (2 Bft) 98,28 %
29.05.2019 09:18 13,2 C 20,0 C 23,3 C 76 % 1021,8 hPa 0,0 l/m 2 min 0 min 554 W/m 9,7 km/h (2 Bft) 95,74 %
29.05.2019 09:20 13,3 C 20,0 C 22,8 C 75 % 1021,9 hPa 0,0 l/m 2 min 0 min 560 W/m 9,7 km/h (2 Bft) 97,87 %
29.05.2019 09:22 13,4 C 21,1 C 23,3 C 76 % 1021,9 hPa 0,0 l/m 2 min 0 min 566 W/m 6,4 km/h (2 Bft) 97,14 %
29.05.2019 09:24 13,6 C 21,7 C 23,9 C 76 % 1021,9 hPa 0,0 l/m 2 min 0 min 573 W/m 6,4 km/h (2 Bft) 98,31 %
29.05.2019 09:26 13,7 C 21,7 C 23,9 C 76 % 1021,9 hPa 0,0 l/m 2 min 0 min 579 W/m 6,4 km/h (2 Bft) 97,83 %
29.05.2019 09:28 13,8 C 21,1 C 23,9 C 75 % 1021,9 hPa 0,0 l/m 2 min 0 min 582 W/m 6,4 km/h (2 Bft) 97,87 %
29.05.2019 09:30 13,9 C 21,1 C 23,3 C 74 % 1022,0 hPa 0,0 l/m 2 min 0 min 585 W/m 6,4 km/h (2 Bft) 100,00 %
29.05.2019 09:32 14,1 C 22,2 C 23,9 C 73 % 1022,0 hPa 0,0 l/m 2 min 0 min 592 W/m 6,4 km/h (2 Bft) 100,00 %
29.05.2019 09:34 14,2 C 21,1 C 22,8 C 73 % 1022,0 hPa 0,0 l/m 2 min 0 min 597 W/m 9,7 km/h (2 Bft) 97,87 %
29.05.2019 09:36 14,2 C 21,7 C 23,3 C 72 % 1022,1 hPa 0,0 l/m 2 min 0 min 603 W/m 6,4 km/h (2 Bft) 100,00 %
29.05.2019 09:38 14,3 C 21,7 C 23,3 C 72 % 1022,1 hPa 0,0 l/m 2 min 0 min 611 W/m 3,2 km/h (1 Bft) 100,00 %
29.05.2019 09:40 14,4 C 21,1 C 22,2 C 71 % 1022,1 hPa 0,0 l/m 2 min 0 min 619 W/m 0,0 km/h (0 Bft) 100,00 %
29.05.2019 09:42 14,5 C 21,1 C 23,3 C 70 % 1022,1 hPa 0,0 l/m 2 min 0 min 626 W/m 0,0 km/h (0 Bft) 100,00 %
29.05.2019 09:44 14,6 C 20,6 C 22,8 C 70 % 1022,1 hPa 0,0 l/m 2 min 0 min 630 W/m 9,7 km/h (2 Bft) 100,00 %
29.05.2019 09:46 14,7 C 20,0 C 21,7 C 69 % 1022,1 hPa 0,0 l/m 2 min 0 min 636 W/m 6,4 km/h (2 Bft) 100,00 %
29.05.2019 09:48 14,7 C 20,0 C 23,3 C 68 % 1022,1 hPa 0,0 l/m 2 min 0 min 641 W/m 6,4 km/h (2 Bft) 97,87 %
29.05.2019 09:50 14,8 C 21,7 C 24,4 C 69 % 1022,1 hPa 0,0 l/m 2 min 0 min 647 W/m 6,4 km/h (2 Bft) 100,00 %
29.05.2019 09:52 14,9 C 20,0 C 22,2 C 68 % 1022,1 hPa 0,0 l/m 2 min 0 min 654 W/m 6,4 km/h (2 Bft) 95,74 %
29.05.2019 09:54 15,0 C 21,1 C 22,8 C 68 % 1022,1 hPa 0,0 l/m 2 min 0 min 659 W/m 6,4 km/h (2 Bft) 100,00 %
29.05.2019 09:56 15,1 C 23,3 C 24,4 C 68 % 1022,1 hPa 0,0 l/m 2 min 0 min 664 W/m 6,4 km/h (2 Bft) 100,00 %
29.05.2019 09:58 15,2 C 22,2 C 23,9 C 68 % 1022,1 hPa 0,0 l/m 2 min 0 min 669 W/m 3,2 km/h (1 Bft) 100,00 %
29.05.2019 10:00 15,2 C 21,7 C 23,3 C 66 % 1022,1 hPa 0,0 l/m 2 min 0 min 672 W/m 6,4 km/h (2 Bft) 100,00 %
29.05.2019 10:02 15,3 C 23,3 C 23,9 C 66 % 1022,1 hPa 0,0 l/m 2 min 0 min 678 W/m 6,4 km/h (2 Bft) 100,00 %
29.05.2019 10:04 15,4 C 23,9 C 25,0 C 66 % 1022,0 hPa 0,0 l/m 2 min 0 min 685 W/m 3,2 km/h (1 Bft) 100,00 %
29.05.2019 10:06 15,5 C 24,4 C 25,6 C 66 % 1022,1 hPa 0,0 l/m 2 min 0 min 691 W/m 6,4 km/h (2 Bft) 100,00 %
29.05.2019 10:08 15,6 C 23,9 C 25,0 C 68 % 1022,1 hPa 0,0 l/m 2 min 0 min 695 W/m 6,4 km/h (2 Bft) 100,00 %
29.05.2019 10:10 15,7 C 24,4 C 26,1 C 68 % 1022,0 hPa 0,0 l/m 2 min 0 min 699 W/m 6,4 km/h (2 Bft) 100,00 %
29.05.2019 10:12 15,8 C 24,4 C 26,1 C 67 % 1022,1 hPa 0,0 l/m 2 min 0 min 707 W/m 6,4 km/h (2 Bft) 100,00 %
29.05.2019 10:14 15,9 C 25,6 C 26,1 C 68 % 1022,1 hPa 0,0 l/m 2 min 0 min 710 W/m 6,4 km/h (2 Bft) 100,00 %
29.05.2019 10:16 16,1 C 25,6 C 26,1 C 66 % 1022,1 hPa 0,0 l/m 2 min 0 min 713 W/m 9,7 km/h (2 Bft) 98,28 %
29.05.2019 10:18 16,1 C 23,9 C 25,6 C 65 % 1022,1 hPa 0,0 l/m 2 min 0 min 719 W/m 6,4 km/h (2 Bft) 100,00 %
29.05.2019 10:20 16,1 C 24,4 C 25,0 C 64 % 1022,1 hPa 0,0 l/m 2 min 0 min 728 W/m 3,2 km/h (1 Bft) 100,00 %
29.05.2019 10:22 16,1 C 23,3 C 23,9 C 62 % 1022,1 hPa 0,0 l/m 2 min 0 min 737 W/m 6,4 km/h (2 Bft) 100,00 %
29.05.2019 10:24 16,2 C 23,9 C 24,4 C 65 % 1022,1 hPa 0,0 l/m 2 min 0 min 743 W/m 6,4 km/h (2 Bft) 100,00 %
29.05.2019 10:26 16,2 C 24,4 C 25,6 C 64 % 1022,1 hPa 0,0 l/m 2 min 0 min 749 W/m 9,7 km/h (2 Bft) 100,00 %
29.05.2019 10:28 16,3 C 24,4 C 26,1 C 65 % 1022,2 hPa 0,0 l/m 2 min 0 min 755 W/m 6,4 km/h (2 Bft) 98,28 %
29.05.2019 10:30 16,4 C 22,8 C 25,0 C 63 % 1022,1 hPa 0,0 l/m 2 min 0 min 757 W/m 6,4 km/h (2 Bft) 100,00 %
29.05.2019 10:32 16,4 C 23,3 C 26,1 C 63 % 1022,1 hPa 0,0 l/m 2 min 0 min 758 W/m 3,2 km/h (1 Bft) 97,87 %
29.05.2019 10:34 16,4 C 23,9 C 25,6 C 62 % 1022,1 hPa 0,0 l/m 2 min 0 min 765 W/m 3,2 km/h (1 Bft) 97,87 %
29.05.2019 10:36 16,5 C 25,0 C 26,7 C 64 % 1022,1 hPa 0,0 l/m 2 min 0 min 769 W/m 3,2 km/h (1 Bft) 98,28 %
29.05.2019 10:38 16,5 C 25,6 C 26,7 C 63 % 1022,1 hPa 0,0 l/m 2 min 0 min 776 W/m 3,2 km/h (1 Bft) 95,83 %
29.05.2019 10:40 16,6 C 23,9 C 25,6 C 63 % 1022,1 hPa 0,0 l/m 2 min 0 min 783 W/m 9,7 km/h (2 Bft) 97,83 %
29.05.2019 10:42 16,7 C 24,4 C 26,1 C 61 % 1022,1 hPa 0,0 l/m 2 min 0 min 787 W/m 9,7 km/h (2 Bft) 100,00 %
29.05.2019 10:44 16,8 C 25,0 C 26,7 C 62 % 1022,1 hPa 0,0 l/m 2 min 0 min 790 W/m 6,4 km/h (2 Bft) 95,74 %
29.05.2019 10:46 16,9 C 23,3 C 25,6 C 62 % 1022,1 hPa 0,0 l/m 2 min 0 min 794 W/m 9,7 km/h (2 Bft) 96,61 %
29.05.2019 10:48 16,9 C 25,0 C 25,6 C 61 % 1022,1 hPa 0,0 l/m 2 min 0 min 798 W/m 6,4 km/h (2 Bft) 97,87 %
29.05.2019 10:50 16,9 C 23,9 C 25,6 C 59 % 1022,2 hPa 0,0 l/m 2 min 0 min 802 W/m 6,4 km/h (2 Bft) 97,87 %
29.05.2019 10:52 17,1 C 25,0 C 25,6 C 59 % 1022,2 hPa 0,0 l/m 2 min 0 min 806 W/m 6,4 km/h (2 Bft) 97,83 %
29.05.2019 10:54 17,1 C 24,4 C 25,6 C 56 % 1022,1 hPa 0,0 l/m 2 min 0 min 810 W/m 6,4 km/h (2 Bft) 97,87 %
29.05.2019 10:56 17,1 C 24,4 C 25,0 C 56 % 1022,1 hPa 0,0 l/m 2 min 0 min 811 W/m 9,7 km/h (2 Bft) 97,87 %
29.05.2019 10:58 17,1 C 23,3 C 23,9 C 55 % 1022,1 hPa 0,0 l/m 2 min 0 min 816 W/m 9,7 km/h (2 Bft) 97,14 %
29.05.2019 11:00 17,2 C 24,4 C 25,6 C 57 % 1022,1 hPa 0,0 l/m 2 min 0 min 821 W/m 9,7 km/h (2 Bft) 97,87 %
29.05.2019 11:02 17,2 C 25,0 C 25,0 C 55 % 1022,1 hPa 0,0 l/m 2 min 0 min 826 W/m 9,7 km/h (2 Bft) 96,61 %
29.05.2019 11:04 17,2 C 25,0 C 26,1 C 56 % 1022,1 hPa 0,0 l/m 2 min 0 min 828 W/m 6,4 km/h (2 Bft) 97,62 %
29.05.2019 11:06 17,2 C 23,3 C 25,6 C 55 % 1022,1 hPa 0,0 l/m 2 min 0 min 830 W/m 9,7 km/h (2 Bft) 93,62 %
29.05.2019 11:08 17,2 C 21,7 C 24,4 C 54 % 1022,2 hPa 0,0 l/m 2 min 0 min 836 W/m 12,9 km/h (3 Bft) 95,35 %
29.05.2019 11:10 17,2 C 22,8 C 24,4 C 55 % 1022,1 hPa 0,0 l/m 2 min 0 min 839 W/m 6,4 km/h (2 Bft) 95,65 %
29.05.2019 11:12 17,2 C 21,7 C 23,3 C 54 % 1022,1 hPa 0,0 l/m 2 min 0 min 842 W/m 9,7 km/h (2 Bft) 95,74 %
29.05.2019 11:14 17,2 C 22,8 C 24,4 C 54 % 1022,1 hPa 0,0 l/m 2 min 0 min 847 W/m 6,4 km/h (2 Bft) 95,74 %
29.05.2019 11:16 17,2 C 23,9 C 25,6 C 54 % 1022,1 hPa 0,0 l/m 2 min 0 min 851 W/m 6,4 km/h (2 Bft) 95,74 %
29.05.2019 11:18 17,2 C 23,9 C 25,0 C 56 % 1022,2 hPa 0,0 l/m 2 min 0 min 856 W/m 6,4 km/h (2 Bft) 93,62 %
29.05.2019 11:20 17,2 C 25,0 C 25,6 C 57 % 1022,2 hPa 0,0 l/m 2 min 0 min 860 W/m 9,7 km/h (2 Bft) 95,74 %
29.05.2019 11:22 17,3 C 24,4 C 26,1 C 58 % 1022,2 hPa 0,0 l/m 2 min 0 min 861 W/m 9,7 km/h (2 Bft) 95,65 %
29.05.2019 11:24 17,3 C 25,6 C 26,7 C 57 % 1022,2 hPa 0,0 l/m 2 min 0 min 865 W/m 3,2 km/h (1 Bft) 97,87 %
29.05.2019 11:26 17,4 C 25,6 C 27,8 C 59 % 1022,2 hPa 0,0 l/m 2 min 0 min 870 W/m 9,7 km/h (2 Bft) 95,74 %
29.05.2019 11:28 17,3 C 25,6 C 26,7 C 56 % 1022,2 hPa 0,0 l/m 2 min 0 min 873 W/m 6,4 km/h (2 Bft) 97,87 %
29.05.2019 11:30 17,3 C 26,7 C 26,1 C 55 % 1022,2 hPa 0,0 l/m 2 min 0 min 875 W/m 9,7 km/h (2 Bft) 93,62 %
29.05.2019 11:32 17,3 C 26,1 C 25,6 C 54 % 1022,2 hPa 0,0 l/m 2 min 0 min 879 W/m 6,4 km/h (2 Bft) 97,87 %
29.05.2019 11:34 17,4 C 26,1 C 26,1 C 55 % 1022,2 hPa 0,0 l/m 2 min 0 min 880 W/m 3,2 km/h (1 Bft) 97,83 %
29.05.2019 11:36 17,4 C 27,2 C 27,2 C 58 % 1022,2 hPa 0,0 l/m 2 min 0 min 885 W/m 6,4 km/h (2 Bft) 97,87 %
29.05.2019 11:38 17,5 C 26,1 C 26,7 C 56 % 1022,2 hPa 0,0 l/m 2 min 0 min 889 W/m 9,7 km/h (2 Bft) 95,74 %
29.05.2019 11:40 17,5 C 26,1 C 26,1 C 54 % 1022,2 hPa 0,0 l/m 2 min 0 min 890 W/m 9,7 km/h (2 Bft) 94,00 %
29.05.2019 11:42 17,5 C 25,6 C 26,7 C 57 % 1022,2 hPa 0,0 l/m 2 min 0 min 892 W/m 6,4 km/h (2 Bft) 97,87 %
29.05.2019 11:44 17,6 C 25,0 C 26,7 C 57 % 1022,2 hPa 0,0 l/m 2 min 0 min 899 W/m 6,4 km/h (2 Bft) 97,83 %
29.05.2019 11:46 17,6 C 26,1 C 26,7 C 57 % 1022,2 hPa 0,0 l/m 2 min 0 min 900 W/m 6,4 km/h (2 Bft) 97,87 %
29.05.2019 11:48 17,6 C 25,0 C 26,7 C 55 % 1022,1 hPa 0,0 l/m 2 min 0 min 903 W/m 12,9 km/h (3 Bft) 97,87 %
29.05.2019 11:50 17,6 C 24,4 C 26,1 C 54 % 1022,2 hPa 0,0 l/m 2 min 0 min 908 W/m 9,7 km/h (2 Bft) 97,87 %
29.05.2019 11:52 17,7 C 25,0 C 26,1 C 56 % 1022,2 hPa 0,0 l/m 2 min 0 min 911 W/m 6,4 km/h (2 Bft) 100,00 %
29.05.2019 11:54 17,8 C 26,1 C 27,2 C 57 % 1022,2 hPa 0,0 l/m 2 min 0 min 912 W/m 9,7 km/h (2 Bft) 95,74 %
29.05.2019 11:56 17,8 C 26,1 C 27,2 C 56 % 1022,2 hPa 0,0 l/m 2 min 0 min 911 W/m 12,9 km/h (3 Bft) 100,00 %
29.05.2019 11:58 17,9 C 26,1 C 28,3 C 55 % 1022,2 hPa 0,0 l/m 2 min 0 min 914 W/m 9,7 km/h (2 Bft) 100,00 %
29.05.2019 12:00 18,0 C 26,1 C 28,9 C 56 % 1022,2 hPa 0,0 l/m 2 min 0 min 918 W/m 9,7 km/h (2 Bft) 97,87 %
29.05.2019 12:02 18,1 C 25,0 C 29,4 C 54 % 1022,1 hPa 0,0 l/m 2 min 0 min 921 W/m 9,7 km/h (2 Bft) 97,87 %
29.05.2019 12:04 18,1 C 25,6 C 28,9 C 58 % 1022,2 hPa 0,0 l/m 2 min 0 min 925 W/m 6,4 km/h (2 Bft) 100,00 %
29.05.2019 12:08 18,3 C 26,1 C 28,3 C 55 % 1022,2 hPa 0,0 l/m 4 min 0 min 926 W/m 6,4 km/h (2 Bft) 100,00 %
29.05.2019 12:10 18,4 C 26,1 C 27,8 C 53 % 1022,2 hPa 0,0 l/m 2 min 0 min 929 W/m 6,4 km/h (2 Bft) 100,00 %
29.05.2019 12:12 18,4 C 25,0 C 27,8 C 52 % 1022,2 hPa 0,0 l/m 2 min 0 min 932 W/m 9,7 km/h (2 Bft) 100,00 %
29.05.2019 12:14 18,4 C 24,4 C 26,7 C 53 % 1022,2 hPa 0,0 l/m 2 min 0 min 936 W/m 9,7 km/h (2 Bft) 100,00 %
29.05.2019 12:16 18,4 C 23,3 C 25,0 C 50 % 1022,2 hPa 0,0 l/m 2 min 0 min 936 W/m 12,9 km/h (3 Bft) 97,87 %
29.05.2019 12:18 18,3 C 22,8 C 24,4 C 51 % 1022,3 hPa 0,0 l/m 2 min 0 min 938 W/m 12,9 km/h (3 Bft) 100,00 %
29.05.2019 12:20 18,3 C 22,8 C 25,6 C 51 % 1022,2 hPa 0,0 l/m 2 min 0 min 939 W/m 12,9 km/h (3 Bft) 100,00 %
29.05.2019 12:22 18,2 C 22,2 C 24,4 C 50 % 1022,3 hPa 0,0 l/m 2 min 0 min 941 W/m 9,7 km/h (2 Bft) 100,00 %
29.05.2019 12:24 18,2 C 23,9 C 26,1 C 54 % 1022,3 hPa 0,0 l/m 2 min 0 min 944 W/m 6,4 km/h (2 Bft) 100,00 %
29.05.2019 12:26 18,1 C 22,8 C 25,0 C 51 % 1022,3 hPa 0,0 l/m 2 min 0 min 947 W/m 16,1 km/h (3 Bft) 100,00 %
29.05.2019 12:28 18,1 C 23,9 C 25,6 C 51 % 1022,4 hPa 0,0 l/m 2 min 0 min 947 W/m 9,7 km/h (2 Bft) 97,87 %
29.05.2019 12:30 18,1 C 24,4 C 26,7 C 53 % 1022,4 hPa 0,0 l/m 2 min 0 min 949 W/m 6,4 km/h (2 Bft) 100,00 %
29.05.2019 12:32 18,1 C 22,2 C 25,0 C 52 % 1022,3 hPa 0,0 l/m 2 min 0 min 951 W/m 12,9 km/h (3 Bft) 97,83 %
29.05.2019 12:34 18,0 C 22,2 C 24,4 C 50 % 1022,3 hPa 0,0 l/m 2 min 0 min 955 W/m 12,9 km/h (3 Bft) 97,87 %
29.05.2019 12:36 18,0 C 24,4 C 27,2 C 54 % 1022,3 hPa 0,0 l/m 2 min 0 min 958 W/m 9,7 km/h (2 Bft) 97,87 %
29.05.2019 12:38 18,1 C 25,0 C 27,2 C 52 % 1022,3 hPa 0,0 l/m 2 min 0 min 959 W/m 9,7 km/h (2 Bft) 100,00 %
29.05.2019 12:40 18,1 C 24,4 C 27,2 C 50 % 1022,2 hPa 0,0 l/m 2 min 0 min 961 W/m 9,7 km/h (2 Bft) 100,00 %
29.05.2019 12:42 18,1 C 25,0 C 26,7 C 52 % 1022,1 hPa 0,0 l/m 2 min 0 min 963 W/m 6,4 km/h (2 Bft) 100,00 %
29.05.2019 12:44 18,2 C 25,6 C 27,8 C 53 % 1022,1 hPa 0,0 l/m 2 min 0 min 966 W/m 6,4 km/h (2 Bft) 97,87 %
29.05.2019 12:46 18,2 C 27,2 C 28,9 C 53 % 1022,1 hPa 0,0 l/m 2 min 0 min 964 W/m 6,4 km/h (2 Bft) 100,00 %
29.05.2019 12:48 18,3 C 26,7 C 28,9 C 52 % 1022,1 hPa 0,0 l/m 2 min 0 min 967 W/m 6,4 km/h (2 Bft) 97,87 %
29.05.2019 12:50 18,5 C 26,7 C 28,9 C 53 % 1022,2 hPa 0,0 l/m 2 min 0 min 971 W/m 9,7 km/h (2 Bft) 100,00 %
29.05.2019 12:52 18,6 C 25,0 C 28,3 C 52 % 1022,2 hPa 0,0 l/m 2 min 0 min 969 W/m 9,7 km/h (2 Bft) 100,00 %
29.05.2019 12:54 18,7 C 26,7 C 29,4 C 55 % 1022,2 hPa 0,0 l/m 2 min 0 min 971 W/m 6,4 km/h (2 Bft) 100,00 %
29.05.2019 12:56 18,8 C 25,6 C 28,9 C 55 % 1022,2 hPa 0,0 l/m 2 min 0 min 972 W/m 12,9 km/h (3 Bft) 100,00 %
29.05.2019 12:58 18,8 C 24,4 C 26,7 C 50 % 1022,2 hPa 0,0 l/m 2 min 0 min 970 W/m 9,7 km/h (2 Bft) 100,00 %
29.05.2019 13:00 18,8 C 24,4 C 27,2 C 50 % 1022,1 hPa 0,0 l/m 2 min 0 min 969 W/m 12,9 km/h (3 Bft) 97,87 %
29.05.2019 13:02 18,9 C 25,0 C 26,7 C 50 % 1022,1 hPa 0,0 l/m 2 min 0 min 970 W/m 9,7 km/h (2 Bft) 100,00 %
29.05.2019 13:04 18,9 C 25,0 C 27,2 C 50 % 1022,1 hPa 0,0 l/m 2 min 0 min 967 W/m 9,7 km/h (2 Bft) 100,00 %
29.05.2019 13:06 19,0 C 25,0 C 28,3 C 49 % 1022,1 hPa 0,0 l/m 2 min 0 min 970 W/m 9,7 km/h (2 Bft) 100,00 %
29.05.2019 13:08 19,1 C 26,7 C 29,4 C 51 % 1022,0 hPa 0,0 l/m 2 min 0 min 970 W/m 6,4 km/h (2 Bft) 97,87 %
29.05.2019 13:10 19,2 C 25,6 C 28,9 C 49 % 1022,1 hPa 0,0 l/m 2 min 0 min 971 W/m 12,9 km/h (3 Bft) 97,83 %
29.05.2019 13:12 19,1 C 25,0 C 28,3 C 51 % 1022,1 hPa 0,0 l/m 2 min 0 min 975 W/m 9,7 km/h (2 Bft) 100,00 %
29.05.2019 13:14 19,1 C 23,9 C 26,7 C 49 % 1022,1 hPa 0,0 l/m 2 min 0 min 976 W/m 12,9 km/h (3 Bft) 100,00 %
29.05.2019 13:16 19,1 C 23,3 C 27,2 C 48 % 1022,1 hPa 0,0 l/m 2 min 0 min 975 W/m 12,9 km/h (3 Bft) 97,87 %
29.05.2019 13:18 19,1 C 23,3 C 27,2 C 49 % 1022,1 hPa 0,0 l/m 2 min 0 min 977 W/m 12,9 km/h (3 Bft) 100,00 %
29.05.2019 13:20 19,0 C 23,3 C 26,7 C 48 % 1022,1 hPa 0,0 l/m 2 min 0 min 975 W/m 9,7 km/h (2 Bft) 100,00 %
29.05.2019 13:22 19,0 C 25,0 C 28,3 C 51 % 1022,1 hPa 0,0 l/m 2 min 0 min 974 W/m 6,4 km/h (2 Bft) 100,00 %
29.05.2019 13:24 19,1 C 25,6 C 29,4 C 55 % 1022,1 hPa 0,0 l/m 2 min 0 min 976 W/m 6,4 km/h (2 Bft) 100,00 %
29.05.2019 13:26 19,2 C 25,0 C 27,8 C 49 % 1022,1 hPa 0,0 l/m 2 min 0 min 977 W/m 12,9 km/h (3 Bft) 100,00 %
29.05.2019 13:28 19,2 C 23,9 C 27,2 C 49 % 1022,1 hPa 0,0 l/m 2 min 0 min 977 W/m 12,9 km/h (3 Bft) 100,00 %
29.05.2019 13:30 19,1 C 22,8 C 26,1 C 49 % 1022,1 hPa 0,0 l/m 2 min 0 min 970 W/m 19,3 km/h (3 Bft) 100,00 %
29.05.2019 13:32 19,1 C 23,3 C 27,2 C 49 % 1022,1 hPa 0,0 l/m 2 min 0 min 968 W/m 9,7 km/h (2 Bft) 100,00 %
29.05.2019 13:34 19,1 C 22,8 C 26,7 C 49 % 1022,0 hPa 0,0 l/m 2 min 0 min 971 W/m 9,7 km/h (2 Bft) 97,83 %
29.05.2019 13:36 19,0 C 22,8 C 26,7 C 49 % 1022,0 hPa 0,0 l/m 2 min 0 min 978 W/m 9,7 km/h (2 Bft) 95,74 %
29.05.2019 13:38 19,0 C 24,4 C 28,3 C 53 % 1022,0 hPa 0,0 l/m 2 min 0 min 976 W/m 12,9 km/h (3 Bft) 93,02 %
29.05.2019 13:40 19,1 C 26,1 C 30,0 C 55 % 1021,9 hPa 0,0 l/m 2 min 0 min 978 W/m 9,7 km/h (2 Bft) 93,62 %
29.05.2019 13:42 19,2 C 23,9 C 27,8 C 51 % 1021,9 hPa 0,0 l/m 2 min 0 min 978 W/m 16,1 km/h (3 Bft) 95,65 %
29.05.2019 13:44 19,2 C 24,4 C 28,3 C 51 % 1022,0 hPa 0,0 l/m 2 min 0 min 978 W/m 12,9 km/h (3 Bft) 95,74 %
29.05.2019 13:46 19,2 C 24,4 C 28,3 C 50 % 1021,9 hPa 0,0 l/m 2 min 0 min 978 W/m 9,7 km/h (2 Bft) 95,74 %
29.05.2019 13:48 19,3 C 25,6 C 28,3 C 50 % 1022,0 hPa 0,0 l/m 2 min 0 min 974 W/m 9,7 km/h (2 Bft) 95,74 %
29.05.2019 13:50 19,4 C 25,6 C 28,9 C 51 % 1021,9 hPa 0,0 l/m 2 min 0 min 978 W/m 6,4 km/h (2 Bft) 95,74 %
29.05.2019 13:52 19,5 C 26,1 C 29,4 C 51 % 1021,9 hPa 0,0 l/m 2 min 0 min 979 W/m 12,9 km/h (3 Bft) 95,74 %
29.05.2019 13:54 19,6 C 25,0 C 28,9 C 51 % 1021,9 hPa 0,0 l/m 2 min 0 min 978 W/m 12,9 km/h (3 Bft) 93,48 %
29.05.2019 13:56 19,6 C 25,0 C 30,0 C 49 % 1022,0 hPa 0,0 l/m 2 min 0 min 975 W/m 19,3 km/h (3 Bft) 95,74 %
29.05.2019 13:58 19,6 C 25,0 C 29,4 C 48 % 1022,0 hPa 0,0 l/m 2 min 0 min 973 W/m 12,9 km/h (3 Bft) 93,62 %
29.05.2019 14:00 19,6 C 24,4 C 29,4 C 47 % 1021,8 hPa 0,0 l/m 2 min 0 min 972 W/m 12,9 km/h (3 Bft) 95,74 %
29.05.2019 14:02 19,6 C 24,4 C 29,4 C 49 % 1021,9 hPa 0,0 l/m 2 min 0 min 975 W/m 9,7 km/h (2 Bft) 92,86 %
29.05.2019 14:04 19,6 C 24,4 C 28,9 C 49 % 1021,9 hPa 0,0 l/m 2 min 0 min 974 W/m 16,1 km/h (3 Bft) 93,62 %
29.05.2019 14:06 19,5 C 22,8 C 27,2 C 47 % 1021,9 hPa 0,0 l/m 2 min 0 min 966 W/m 16,1 km/h (3 Bft) 95,74 %
29.05.2019 14:08 19,4 C 23,9 C 27,8 C 48 % 1021,8 hPa 0,0 l/m 2 min 0 min 969 W/m 6,4 km/h (2 Bft) 95,74 %
29.05.2019 14:10 19,4 C 23,3 C 28,3 C 48 % 1021,9 hPa 0,0 l/m 2 min 0 min 966 W/m 9,7 km/h (2 Bft) 95,74 %
29.05.2019 14:12 19,3 C 24,4 C 28,3 C 49 % 1021,9 hPa 0,0 l/m 2 min 0 min 969 W/m 9,7 km/h (2 Bft) 93,48 %
29.05.2019 14:14 19,4 C 25,6 C 29,4 C 54 % 1022,0 hPa 0,0 l/m 2 min 0 min 971 W/m 9,7 km/h (2 Bft) 93,62 %
29.05.2019 14:16 19,6 C 26,7 C 29,4 C 53 % 1022,0 hPa 0,0 l/m 2 min 0 min 967 W/m 3,2 km/h (1 Bft) 93,62 %
29.05.2019 14:18 19,8 C 27,2 C 30,0 C 52 % 1022,0 hPa 0,0 l/m 2 min 0 min 967 W/m 6,4 km/h (2 Bft) 95,74 %
29.05.2019 14:20 20,0 C 27,8 C 30,6 C 52 % 1022,0 hPa 0,0 l/m 2 min 0 min 962 W/m 3,2 km/h (1 Bft) 93,62 %
29.05.2019 14:22 20,1 C 26,1 C 29,4 C 50 % 1021,8 hPa 0,0 l/m 2 min 0 min 961 W/m 9,7 km/h (2 Bft) 95,65 %
29.05.2019 14:24 20,2 C 24,4 C 27,8 C 49 % 1021,9 hPa 0,0 l/m 2 min 0 min 956 W/m 9,7 km/h (2 Bft) 95,74 %
29.05.2019 14:26 20,2 C 25,0 C 28,9 C 50 % 1021,9 hPa 0,0 l/m 2 min 0 min 962 W/m 12,9 km/h (3 Bft) 97,87 %
29.05.2019 14:28 20,3 C 25,0 C 28,9 C 52 % 1021,8 hPa 0,0 l/m 2 min 0 min 960 W/m 9,7 km/h (2 Bft) 97,87 %
29.05.2019 14:30 20,4 C 24,4 C 27,8 C 48 % 1021,7 hPa 0,0 l/m 2 min 0 min 962 W/m 12,9 km/h (3 Bft) 95,74 %
29.05.2019 14:32 20,4 C 23,9 C 27,2 C 46 % 1021,8 hPa 0,0 l/m 2 min 0 min 960 W/m 16,1 km/h (3 Bft) 95,74 %
29.05.2019 14:34 20,4 C 25,0 C 26,7 C 46 % 1021,8 hPa 0,0 l/m 2 min 0 min 959 W/m 9,7 km/h (2 Bft) 95,65 %
29.05.2019 14:36 20,4 C 24,4 C 24,4 C 44 % 1021,9 hPa 0,0 l/m 2 min 0 min 955 W/m 16,1 km/h (3 Bft) 97,87 %
29.05.2019 14:38 20,4 C 24,4 C 23,9 C 45 % 1021,9 hPa 0,0 l/m 2 min 0 min 954 W/m 9,7 km/h (2 Bft) 97,87 %
29.05.2019 14:40 20,4 C 23,9 C 22,8 C 45 % 1021,8 hPa 0,0 l/m 2 min 0 min 956 W/m 9,7 km/h (2 Bft) 97,87 %
29.05.2019 14:42 20,4 C 23,9 C 23,3 C 44 % 1021,8 hPa 0,0 l/m 2 min 0 min 954 W/m 12,9 km/h (3 Bft) 95,74 %
29.05.2019 14:44 20,4 C 23,9 C 24,4 C 44 % 1021,8 hPa 0,0 l/m 2 min 0 min 953 W/m 12,9 km/h (3 Bft) 97,87 %
29.05.2019 14:46 20,4 C 23,9 C 23,9 C 43 % 1021,8 hPa 0,0 l/m 2 min 0 min 951 W/m 9,7 km/h (2 Bft) 97,83 %
29.05.2019 14:48 20,4 C 23,9 C 22,8 C 43 % 1021,7 hPa 0,0 l/m 2 min 0 min 946 W/m 16,1 km/h (3 Bft) 97,87 %
29.05.2019 14:50 20,3 C 21,7 C 21,1 C 42 % 1021,7 hPa 0,0 l/m 2 min 0 min 944 W/m 25,7 km/h (4 Bft) 97,87 %
29.05.2019 14:52 20,2 C 23,3 C 20,6 C 43 % 1021,7 hPa 0,0 l/m 2 min 0 min 942 W/m 9,7 km/h (2 Bft) 97,87 %
29.05.2019 14:54 20,1 C 22,8 C 20,6 C 43 % 1021,8 hPa 0,0 l/m 2 min 0 min 940 W/m 9,7 km/h (2 Bft) 95,74 %
29.05.2019 14:56 20,2 C 23,3 C 20,6 C 44 % 1021,8 hPa 0,0 l/m 2 min 0 min 940 W/m 9,7 km/h (2 Bft) 95,74 %
29.05.2019 14:58 20,1 C 24,4 C 21,1 C 43 % 1021,7 hPa 0,0 l/m 2 min 0 min 937 W/m 9,7 km/h (2 Bft) 97,83 %
29.05.2019 15:00 20,1 C 23,9 C 21,1 C 44 % 1021,7 hPa 0,0 l/m 2 min 0 min 933 W/m 9,7 km/h (2 Bft) 95,74 %
29.05.2019 15:02 20,2 C 25,0 C 21,1 C 43 % 1021,7 hPa 0,0 l/m 2 min 0 min 928 W/m 12,9 km/h (3 Bft) 97,87 %
29.05.2019 15:04 20,2 C 24,4 C 20,6 C 43 % 1021,6 hPa 0,0 l/m 2 min 0 min 926 W/m 12,9 km/h (3 Bft) 97,87 %
29.05.2019 15:06 20,2 C 24,4 C 20,6 C 42 % 1021,5 hPa 0,0 l/m 2 min 0 min 927 W/m 9,7 km/h (2 Bft) 93,62 %
29.05.2019 15:08 20,2 C 23,3 C 20,0 C 42 % 1021,5 hPa 0,0 l/m 2 min 0 min 926 W/m 16,1 km/h (3 Bft) 96,30 %
29.05.2019 15:10 20,2 C 23,3 C 20,0 C 42 % 1021,6 hPa 0,0 l/m 2 min 0 min 925 W/m 19,3 km/h (3 Bft) 97,87 %
29.05.2019 15:12 20,2 C 22,2 C 20,0 C 41 % 1021,5 hPa 0,0 l/m 2 min 0 min 923 W/m 22,5 km/h (4 Bft) 97,87 %
29.05.2019 15:14 20,1 C 21,7 C 19,4 C 41 % 1021,7 hPa 0,0 l/m 2 min 0 min 921 W/m 19,3 km/h (3 Bft) 97,87 %
29.05.2019 15:16 20,1 C 22,2 C 20,0 C 41 % 1021,6 hPa 0,0 l/m 2 min 0 min 918 W/m 9,7 km/h (2 Bft) 97,83 %
29.05.2019 15:18 20,1 C 22,2 C 19,4 C 41 % 1021,6 hPa 0,0 l/m 2 min 0 min 917 W/m 12,9 km/h (3 Bft) 97,87 %
29.05.2019 15:20 20,1 C 22,8 C 20,0 C 43 % 1021,6 hPa 0,0 l/m 2 min 0 min 913 W/m 16,1 km/h (3 Bft) 95,74 %
29.05.2019 15:22 20,1 C 23,3 C 20,0 C 43 % 1021,6 hPa 0,0 l/m 2 min 0 min 906 W/m 9,7 km/h (2 Bft) 95,74 %
29.05.2019 15:24 20,2 C 24,4 C 20,0 C 43 % 1021,5 hPa 0,0 l/m 2 min 0 min 903 W/m 3,2 km/h (1 Bft) 97,87 %
29.05.2019 15:26 20,2 C 24,4 C 20,0 C 42 % 1021,5 hPa 0,0 l/m 2 min 0 min 908 W/m 9,7 km/h (2 Bft) 100,00 %
29.05.2019 15:28 20,3 C 23,3 C 19,4 C 40 % 1021,5 hPa 0,0 l/m 2 min 0 min 915 W/m 12,9 km/h (3 Bft) 100,00 %
29.05.2019 15:30 20,3 C 22,8 C 20,0 C 41 % 1021,5 hPa 0,0 l/m 2 min 0 min 907 W/m 16,1 km/h (3 Bft) 100,00 %
29.05.2019 15:32 20,3 C 22,2 C 20,0 C 40 % 1021,5 hPa 0,0 l/m 2 min 0 min 899 W/m 19,3 km/h (3 Bft) 100,00 %
29.05.2019 15:34 20,4 C 22,8 C 19,4 C 40 % 1021,5 hPa 0,0 l/m 2 min 0 min 894 W/m 9,7 km/h (2 Bft) 100,00 %
29.05.2019 15:36 20,4 C 23,3 C 20,0 C 43 % 1021,5 hPa 0,0 l/m 2 min 0 min 887 W/m 6,4 km/h (2 Bft) 100,00 %
29.05.2019 15:38 20,5 C 22,8 C 20,0 C 43 % 1021,5 hPa 0,0 l/m 2 min 0 min 881 W/m 16,1 km/h (3 Bft) 100,00 %
29.05.2019 15:40 20,5 C 21,7 C 19,4 C 42 % 1021,5 hPa 0,0 l/m 2 min 0 min 879 W/m 19,3 km/h (3 Bft) 97,87 %
29.05.2019 15:42 20,5 C 21,7 C 19,4 C 43 % 1021,5 hPa 0,0 l/m 2 min 0 min 877 W/m 19,3 km/h (3 Bft) 97,87 %
29.05.2019 15:44 20,5 C 22,8 C 20,0 C 45 % 1021,4 hPa 0,0 l/m 2 min 0 min 866 W/m 6,4 km/h (2 Bft) 100,00 %
29.05.2019 15:46 20,6 C 22,8 C 20,0 C 45 % 1021,4 hPa 0,0 l/m 2 min 0 min 859 W/m 9,7 km/h (2 Bft) 100,00 %
29.05.2019 15:48 20,7 C 22,8 C 20,0 C 43 % 1021,4 hPa 0,0 l/m 2 min 0 min 867 W/m 9,7 km/h (2 Bft) 100,00 %
29.05.2019 15:50 20,7 C 22,8 C 20,0 C 44 % 1021,4 hPa 0,0 l/m 2 min 0 min 865 W/m 12,9 km/h (3 Bft) 100,00 %
29.05.2019 15:52 20,7 C 21,7 C 20,0 C 43 % 1021,4 hPa 0,0 l/m 2 min 0 min 851 W/m 16,1 km/h (3 Bft) 97,87 %
29.05.2019 15:54 20,8 C 22,2 C 20,0 C 44 % 1021,4 hPa 0,0 l/m 2 min 0 min 877 W/m 12,9 km/h (3 Bft) 97,87 %
29.05.2019 15:56 20,8 C 22,2 C 20,0 C 44 % 1021,4 hPa 0,0 l/m 2 min 0 min 901 W/m 16,1 km/h (3 Bft) 97,87 %
29.05.2019 15:58 20,9 C 22,8 C 20,6 C 49 % 1021,3 hPa 0,0 l/m 2 min 0 min 891 W/m 6,4 km/h (2 Bft) 95,74 %
29.05.2019 16:00 21,0 C 22,8 C 20,0 C 50 % 1021,3 hPa 0,0 l/m 0 min 0 min 349 W/m 6,4 km/h (2 Bft) 97,87 %
29.05.2019 16:02 21,0 C 21,7 C 20,0 C 47 % 1021,3 hPa 0,0 l/m 0 min 0 min 184 W/m 3,2 km/h (1 Bft) 97,83 %
29.05.2019 16:04 21,1 C 21,7 C 20,0 C 46 % 1021,4 hPa 0,0 l/m 0 min 0 min 160 W/m 9,7 km/h (2 Bft) 97,87 %
29.05.2019 16:06 21,1 C 21,1 C 20,0 C 45 % 1021,4 hPa 0,0 l/m 2 min 0 min 778 W/m 16,1 km/h (3 Bft) 100,00 %
29.05.2019 16:08 21,1 C 21,7 C 20,0 C 44 % 1021,3 hPa 0,0 l/m 2 min 0 min 880 W/m 9,7 km/h (2 Bft) 97,87 %
29.05.2019 16:10 21,1 C 22,2 C 20,6 C 45 % 1021,3 hPa 0,0 l/m 2 min 0 min 887 W/m 6,4 km/h (2 Bft) 95,74 %
29.05.2019 16:12 21,1 C 21,1 C 20,6 C 43 % 1021,3 hPa 0,0 l/m 2 min 0 min 889 W/m 9,7 km/h (2 Bft) 97,87 %
29.05.2019 16:14 21,1 C 21,1 C 20,0 C 43 % 1021,3 hPa 0,0 l/m 2 min 0 min 883 W/m 19,3 km/h (3 Bft) 97,83 %
29.05.2019 16:16 21,1 C 20,6 C 20,0 C 44 % 1021,4 hPa 0,0 l/m 2 min 0 min 860 W/m 22,5 km/h (4 Bft) 95,74 %
29.05.2019 16:18 21,0 C 20,6 C 20,0 C 44 % 1021,4 hPa 0,0 l/m 2 min 0 min 830 W/m 12,9 km/h (3 Bft) 97,87 %
29.05.2019 16:20 21,0 C 19,4 C 19,4 C 43 % 1021,3 hPa 0,0 l/m 2 min 0 min 809 W/m 12,9 km/h (3 Bft) 97,87 %
29.05.2019 16:22 20,9 C 19,4 C 20,0 C 43 % 1021,3 hPa 0,0 l/m 2 min 0 min 806 W/m 22,5 km/h (4 Bft) 97,87 %
29.05.2019 16:24 20,8 C 19,4 C 19,4 C 43 % 1021,3 hPa 0,0 l/m 2 min 0 min 813 W/m 19,3 km/h (3 Bft) 97,87 %
29.05.2019 16:26 20,7 C 20,0 C 19,4 C 43 % 1021,3 hPa 0,0 l/m 2 min 0 min 821 W/m 12,9 km/h (3 Bft) 95,65 %
29.05.2019 16:28 20,7 C 20,6 C 19,4 C 47 % 1021,3 hPa 0,0 l/m 2 min 0 min 820 W/m 9,7 km/h (2 Bft) 95,74 %
29.05.2019 16:30 20,8 C 20,6 C 19,4 C 46 % 1021,3 hPa 0,0 l/m 0 min 0 min 263 W/m 9,7 km/h (2 Bft) 95,74 %
29.05.2019 16:32 20,8 C 20,6 C 20,0 C 46 % 1021,3 hPa 0,0 l/m 0 min 0 min 306 W/m 9,7 km/h (2 Bft) 95,74 %
29.05.2019 16:34 20,8 C 21,1 C 20,0 C 48 % 1021,3 hPa 0,0 l/m 2 min 0 min 834 W/m 6,4 km/h (2 Bft) 93,62 %
29.05.2019 16:36 20,9 C 21,1 C 20,0 C 46 % 1021,3 hPa 0,0 l/m 2 min 0 min 830 W/m 9,7 km/h (2 Bft) 97,87 %
29.05.2019 16:38 21,0 C 21,1 C 20,0 C 48 % 1021,3 hPa 0,0 l/m 2 min 0 min 824 W/m 6,4 km/h (2 Bft) 97,83 %
29.05.2019 16:40 21,0 C 20,6 C 20,0 C 45 % 1021,3 hPa 0,0 l/m 2 min 0 min 824 W/m 9,7 km/h (2 Bft) 98,00 %
29.05.2019 16:42 21,0 C 20,6 C 20,0 C 44 % 1021,3 hPa 0,0 l/m 2 min 0 min 795 W/m 12,9 km/h (3 Bft) 97,87 %
29.05.2019 16:44 21,0 C 20,6 C 20,0 C 44 % 1021,3 hPa 0,0 l/m 2 min 0 min 355 W/m 6,4 km/h (2 Bft) 95,74 %
29.05.2019 16:46 21,1 C 20,6 C 20,0 C 47 % 1021,4 hPa 0,0 l/m 2 min 0 min 581 W/m 6,4 km/h (2 Bft) 95,74 %
29.05.2019 16:48 21,1 C 20,0 C 19,4 C 45 % 1021,4 hPa 0,0 l/m 0 min 0 min 147 W/m 3,2 km/h (1 Bft) 95,65 %
29.05.2019 16:50 21,1 C 20,0 C 19,4 C 45 % 1021,4 hPa 0,0 l/m 2 min 0 min 517 W/m 9,7 km/h (2 Bft) 95,74 %
29.05.2019 16:52 21,1 C 19,4 C 19,4 C 44 % 1021,4 hPa 0,0 l/m 2 min 0 min 739 W/m 6,4 km/h (2 Bft) 97,87 %
29.05.2019 16:54 21,1 C 20,0 C 19,4 C 44 % 1021,4 hPa 0,0 l/m 2 min 0 min 736 W/m 6,4 km/h (2 Bft) 97,87 %
29.05.2019 16:56 21,1 C 20,6 C 19,4 C 45 % 1021,4 hPa 0,0 l/m 2 min 0 min 730 W/m 12,9 km/h (3 Bft) 97,87 %
29.05.2019 16:58 21,1 C 20,6 C 20,0 C 43 % 1021,5 hPa 0,0 l/m 2 min 0 min 728 W/m 16,1 km/h (3 Bft) 97,87 %
29.05.2019 17:00 21,1 C 21,1 C 20,0 C 44 % 1021,4 hPa 0,0 l/m 2 min 0 min 718 W/m 9,7 km/h (2 Bft) 97,83 %
29.05.2019 17:02 21,2 C 20,6 C 20,0 C 43 % 1021,4 hPa 0,0 l/m 2 min 0 min 705 W/m 16,1 km/h (3 Bft) 97,87 %
29.05.2019 17:04 21,2 C 21,1 C 20,0 C 45 % 1021,4 hPa 0,0 l/m 2 min 0 min 697 W/m 9,7 km/h (2 Bft) 97,87 %
29.05.2019 17:06 21,2 C 21,1 C 20,0 C 43 % 1021,4 hPa 0,0 l/m 2 min 0 min 693 W/m 9,7 km/h (2 Bft) 97,87 %
29.05.2019 17:08 21,3 C 21,7 C 20,0 C 44 % 1021,3 hPa 0,0 l/m 2 min 0 min 692 W/m 3,2 km/h (1 Bft) 97,87 %
29.05.2019 17:10 21,4 C 21,1 C 20,0 C 44 % 1021,4 hPa 0,0 l/m 2 min 0 min 684 W/m 9,7 km/h (2 Bft) 97,87 %
29.05.2019 17:12 21,4 C 20,6 C 20,0 C 44 % 1021,4 hPa 0,0 l/m 2 min 0 min 678 W/m 16,1 km/h (3 Bft) 97,83 %
29.05.2019 17:14 21,4 C 20,6 C 20,0 C 44 % 1021,4 hPa 0,0 l/m 2 min 0 min 679 W/m 12,9 km/h (3 Bft) 100,00 %
29.05.2019 17:16 21,4 C 20,6 C 19,4 C 44 % 1021,4 hPa 0,0 l/m 2 min 0 min 671 W/m 19,3 km/h (3 Bft) 100,00 %
29.05.2019 17:18 21,4 C 20,0 C 19,4 C 43 % 1021,4 hPa 0,0 l/m 2 min 0 min 624 W/m 12,9 km/h (3 Bft) 100,00 %
29.05.2019 17:20 21,3 C 19,4 C 18,9 C 44 % 1021,4 hPa 0,0 l/m 2 min 0 min 471 W/m 16,1 km/h (3 Bft) 97,87 %
29.05.2019 17:22 21,2 C 18,9 C 18,9 C 42 % 1021,5 hPa 0,0 l/m 0 min 0 min 145 W/m 16,1 km/h (3 Bft) 100,00 %
29.05.2019 17:24 21,1 C 18,9 C 18,9 C 43 % 1021,5 hPa 0,0 l/m 2 min 0 min 444 W/m 6,4 km/h (2 Bft) 100,00 %
29.05.2019 17:26 21,1 C 20,0 C 19,4 C 45 % 1021,4 hPa 0,0 l/m 2 min 0 min 665 W/m 6,4 km/h (2 Bft) 100,00 %
29.05.2019 17:28 21,1 C 20,0 C 20,0 C 46 % 1021,4 hPa 0,0 l/m 2 min 0 min 652 W/m 9,7 km/h (2 Bft) 100,00 %
29.05.2019 17:30 21,1 C 19,4 C 20,0 C 44 % 1021,4 hPa 0,0 l/m 2 min 0 min 642 W/m 9,7 km/h (2 Bft) 95,74 %
29.05.2019 17:32 21,1 C 20,6 C 20,0 C 45 % 1021,4 hPa 0,0 l/m 2 min 0 min 637 W/m 6,4 km/h (2 Bft) 100,00 %
29.05.2019 17:34 21,1 C 20,6 C 20,0 C 44 % 1021,4 hPa 0,0 l/m 2 min 0 min 623 W/m 6,4 km/h (2 Bft) 95,65 %
29.05.2019 17:36 21,1 C 20,6 C 20,0 C 44 % 1021,3 hPa 0,0 l/m 2 min 0 min 614 W/m 12,9 km/h (3 Bft) 97,87 %
29.05.2019 17:38 21,1 C 20,0 C 20,0 C 45 % 1021,4 hPa 0,0 l/m 2 min 0 min 608 W/m 12,9 km/h (3 Bft) 100,00 %
29.05.2019 17:40 21,1 C 20,6 C 20,0 C 44 % 1021,2 hPa 0,0 l/m 2 min 0 min 585 W/m 12,9 km/h (3 Bft) 100,00 %
29.05.2019 17:42 21,2 C 20,6 C 19,4 C 45 % 1021,3 hPa 0,0 l/m 2 min 0 min 568 W/m 6,4 km/h (2 Bft) 97,87 %
29.05.2019 17:44 21,2 C 20,0 C 19,4 C 45 % 1021,2 hPa 0,0 l/m 2 min 0 min 547 W/m 12,9 km/h (3 Bft) 97,87 %
29.05.2019 17:46 21,2 C 20,0 C 20,0 C 43 % 1021,3 hPa 0,0 l/m 2 min 0 min 550 W/m 9,7 km/h (2 Bft) 97,83 %
29.05.2019 17:48 21,2 C 20,0 C 20,6 C 44 % 1021,2 hPa 0,0 l/m 2 min 0 min 551 W/m 6,4 km/h (2 Bft) 100,00 %
29.05.2019 17:50 21,2 C 20,0 C 20,0 C 45 % 1021,2 hPa 0,0 l/m 2 min 0 min 560 W/m 12,9 km/h (3 Bft) 97,87 %
29.05.2019 17:52 21,2 C 20,0 C 19,4 C 45 % 1021,2 hPa 0,0 l/m 2 min 0 min 558 W/m 9,7 km/h (2 Bft) 100,00 %
29.05.2019 17:54 21,2 C 20,0 C 19,4 C 45 % 1021,2 hPa 0,0 l/m 2 min 0 min 550 W/m 9,7 km/h (2 Bft) 97,87 %
29.05.2019 17:56 21,2 C 20,6 C 19,4 C 45 % 1021,2 hPa 0,0 l/m 2 min 0 min 547 W/m 9,7 km/h (2 Bft) 95,74 %
29.05.2019 17:58 21,2 C 20,6 C 19,4 C 45 % 1021,2 hPa 0,0 l/m 2 min 0 min 539 W/m 12,9 km/h (3 Bft) 97,83 %
29.05.2019 18:00 21,3 C 20,6 C 19,4 C 45 % 1021,1 hPa 0,0 l/m 2 min 0 min 529 W/m 9,7 km/h (2 Bft) 97,87 %
29.05.2019 18:02 21,3 C 20,6 C 19,4 C 45 % 1021,1 hPa 0,0 l/m 2 min 0 min 526 W/m 9,7 km/h (2 Bft) 97,87 %
29.05.2019 18:04 21,3 C 21,1 C 19,4 C 48 % 1021,1 hPa 0,0 l/m 2 min 0 min 519 W/m 3,2 km/h (1 Bft) 95,74 %
29.05.2019 18:08 21,4 C 21,7 C 19,4 C 45 % 1021,1 hPa 0,0 l/m 4 min 0 min 509 W/m 6,4 km/h (2 Bft) 97,87 %
29.05.2019 18:10 21,4 C 21,1 C 19,4 C 45 % 1021,1 hPa 0,0 l/m 2 min 0 min 501 W/m 9,7 km/h (2 Bft) 95,65 %
29.05.2019 18:12 21,5 C 20,0 C 18,9 C 44 % 1021,1 hPa 0,0 l/m 2 min 0 min 498 W/m 9,7 km/h (2 Bft) 93,62 %
29.05.2019 18:14 21,5 C 20,6 C 18,9 C 48 % 1021,1 hPa 0,0 l/m 2 min 0 min 494 W/m 9,7 km/h (2 Bft) 95,74 %
29.05.2019 18:16 21,5 C 20,6 C 18,9 C 46 % 1021,0 hPa 0,0 l/m 2 min 0 min 489 W/m 3,2 km/h (1 Bft) 97,87 %
29.05.2019 18:18 21,5 C 20,6 C 18,9 C 48 % 1021,0 hPa 0,0 l/m 2 min 0 min 483 W/m 3,2 km/h (1 Bft) 97,87 %
29.05.2019 18:20 21,5 C 20,6 C 19,4 C 46 % 1021,0 hPa 0,0 l/m 2 min 0 min 477 W/m 6,4 km/h (2 Bft) 95,74 %
29.05.2019 18:22 21,5 C 20,6 C 19,4 C 45 % 1021,0 hPa 0,0 l/m 2 min 0 min 471 W/m 12,9 km/h (3 Bft) 95,65 %
29.05.2019 18:24 21,5 C 20,0 C 19,4 C 45 % 1021,0 hPa 0,0 l/m 2 min 0 min 463 W/m 16,1 km/h (3 Bft) 95,74 %
29.05.2019 18:26 21,6 C 20,0 C 19,4 C 44 % 1021,0 hPa 0,0 l/m 2 min 0 min 450 W/m 6,4 km/h (2 Bft) 95,74 %
29.05.2019 18:28 21,6 C 20,0 C 19,4 C 47 % 1021,0 hPa 0,0 l/m 2 min 0 min 431 W/m 6,4 km/h (2 Bft) 93,62 %
29.05.2019 18:30 21,6 C 20,6 C 18,9 C 46 % 1021,0 hPa 0,0 l/m 2 min 0 min 439 W/m 16,1 km/h (3 Bft) 97,22 %
29.05.2019 18:32 21,6 C 20,0 C 18,9 C 45 % 1020,9 hPa 0,0 l/m 2 min 0 min 432 W/m 16,1 km/h (3 Bft) 94,92 %
29.05.2019 18:34 21,6 C 20,0 C 18,9 C 45 % 1020,9 hPa 0,0 l/m 2 min 0 min 423 W/m 19,3 km/h (3 Bft) 91,49 %
29.05.2019 18:36 21,6 C 20,0 C 18,9 C 45 % 1020,9 hPa 0,0 l/m 2 min 0 min 414 W/m 9,7 km/h (2 Bft) 95,74 %
29.05.2019 18:38 21,5 C 20,0 C 18,9 C 45 % 1020,8 hPa 0,0 l/m 2 min 0 min 411 W/m 12,9 km/h (3 Bft) 95,65 %
29.05.2019 18:40 21,5 C 20,0 C 20,0 C 45 % 1020,8 hPa 0,0 l/m 2 min 0 min 403 W/m 12,9 km/h (3 Bft) 95,74 %
29.05.2019 18:42 21,5 C 20,0 C 20,0 C 46 % 1020,9 hPa 0,0 l/m 2 min 0 min 397 W/m 9,7 km/h (2 Bft) 93,62 %
29.05.2019 18:44 21,4 C 20,0 C 20,0 C 48 % 1020,8 hPa 0,0 l/m 2 min 0 min 392 W/m 6,4 km/h (2 Bft) 93,62 %
29.05.2019 18:46 21,4 C 20,0 C 19,4 C 46 % 1021,0 hPa 0,0 l/m 2 min 0 min 385 W/m 6,4 km/h (2 Bft) 95,74 %
29.05.2019 18:48 21,4 C 20,0 C 19,4 C 46 % 1020,9 hPa 0,0 l/m 2 min 0 min 379 W/m 6,4 km/h (2 Bft) 95,74 %
29.05.2019 18:50 21,4 C 20,0 C 18,9 C 45 % 1020,9 hPa 0,0 l/m 2 min 0 min 373 W/m 16,1 km/h (3 Bft) 91,30 %
29.05.2019 18:52 21,4 C 20,0 C 18,9 C 45 % 1020,9 hPa 0,0 l/m 2 min 0 min 363 W/m 6,4 km/h (2 Bft) 97,14 %
29.05.2019 18:54 21,3 C 20,0 C 18,9 C 47 % 1020,9 hPa 0,0 l/m 2 min 0 min 358 W/m 6,4 km/h (2 Bft) 93,62 %
29.05.2019 18:56 21,3 C 20,0 C 18,3 C 47 % 1020,9 hPa 0,0 l/m 2 min 0 min 352 W/m 3,2 km/h (1 Bft) 95,74 %
29.05.2019 18:58 21,3 C 20,6 C 18,3 C 49 % 1020,9 hPa 0,0 l/m 2 min 0 min 344 W/m 6,4 km/h (2 Bft) 96,61 %
29.05.2019 19:00 21,3 C 20,6 C 18,3 C 47 % 1020,9 hPa 0,0 l/m 2 min 0 min 336 W/m 6,4 km/h (2 Bft) 97,87 %
29.05.2019 19:02 21,3 C 20,0 C 17,8 C 48 % 1020,9 hPa 0,0 l/m 2 min 0 min 328 W/m 6,4 km/h (2 Bft) 97,83 %
29.05.2019 19:04 21,3 C 20,0 C 17,8 C 46 % 1020,9 hPa 0,0 l/m 2 min 0 min 320 W/m 6,4 km/h (2 Bft) 100,00 %
29.05.2019 19:06 21,2 C 20,0 C 17,8 C 46 % 1020,9 hPa 0,0 l/m 2 min 0 min 312 W/m 6,4 km/h (2 Bft) 95,74 %
29.05.2019 19:08 21,2 C 20,0 C 17,2 C 46 % 1021,0 hPa 0,0 l/m 2 min 0 min 307 W/m 6,4 km/h (2 Bft) 95,74 %
29.05.2019 19:10 21,2 C 20,0 C 17,8 C 45 % 1021,0 hPa 0,0 l/m 2 min 0 min 298 W/m 6,4 km/h (2 Bft) 97,87 %
29.05.2019 19:12 21,3 C 20,6 C 17,8 C 45 % 1020,9 hPa 0,0 l/m 2 min 0 min 292 W/m 6,4 km/h (2 Bft) 97,83 %
29.05.2019 19:14 21,3 C 20,0 C 18,3 C 44 % 1020,9 hPa 0,0 l/m 2 min 0 min 288 W/m 12,9 km/h (3 Bft) 97,87 %
29.05.2019 19:16 21,3 C 19,4 C 18,3 C 44 % 1020,9 hPa 0,0 l/m 2 min 0 min 276 W/m 19,3 km/h (3 Bft) 94,29 %
29.05.2019 19:18 21,3 C 19,4 C 18,3 C 44 % 1021,0 hPa 0,0 l/m 2 min 0 min 261 W/m 12,9 km/h (3 Bft) 96,61 %
29.05.2019 19:20 21,3 C 19,4 C 18,3 C 43 % 1021,0 hPa 0,0 l/m 2 min 0 min 246 W/m 12,9 km/h (3 Bft) 97,14 %
29.05.2019 19:22 21,3 C 19,4 C 18,3 C 44 % 1020,9 hPa 0,0 l/m 2 min 0 min 253 W/m 12,9 km/h (3 Bft) 97,87 %
29.05.2019 19:24 21,3 C 19,4 C 18,3 C 44 % 1021,0 hPa 0,0 l/m 2 min 0 min 248 W/m 6,4 km/h (2 Bft) 97,87 %
29.05.2019 19:26 21,2 C 19,4 C 18,3 C 45 % 1021,0 hPa 0,0 l/m 2 min 0 min 244 W/m 6,4 km/h (2 Bft) 95,74 %
29.05.2019 19:28 21,2 C 19,4 C 17,8 C 45 % 1021,2 hPa 0,0 l/m 2 min 0 min 237 W/m 3,2 km/h (1 Bft) 97,83 %
29.05.2019 19:30 21,1 C 19,4 C 17,8 C 45 % 1021,1 hPa 0,0 l/m 2 min 0 min 206 W/m 6,4 km/h (2 Bft) 96,61 %
29.05.2019 19:32 21,0 C 18,9 C 17,8 C 43 % 1021,1 hPa 0,0 l/m 0 min 0 min 94 W/m 6,4 km/h (2 Bft) 97,14 %
29.05.2019 19:34 21,0 C 18,9 C 17,8 C 44 % 1021,0 hPa 0,0 l/m 0 min 0 min 67 W/m 12,9 km/h (3 Bft) 96,61 %
29.05.2019 19:36 20,9 C 18,9 C 17,8 C 46 % 1021,1 hPa 0,0 l/m 0 min 0 min 67 W/m 6,4 km/h (2 Bft) 97,83 %
29.05.2019 19:38 20,9 C 18,9 C 17,8 C 48 % 1021,1 hPa 0,0 l/m 0 min 0 min 67 W/m 3,2 km/h (1 Bft) 97,87 %
29.05.2019 19:40 20,8 C 18,9 C 17,8 C 48 % 1021,0 hPa 0,0 l/m 0 min 0 min 69 W/m 3,2 km/h (1 Bft) 97,87 %
29.05.2019 19:42 20,7 C 18,9 C 17,2 C 49 % 1021,0 hPa 0,0 l/m 0 min 0 min 67 W/m 6,4 km/h (2 Bft) 97,87 %
29.05.2019 19:44 20,6 C 18,9 C 17,2 C 47 % 1021,1 hPa 0,0 l/m 0 min 0 min 69 W/m 6,4 km/h (2 Bft) 97,87 %
29.05.2019 19:46 20,6 C 18,3 C 17,2 C 47 % 1021,1 hPa 0,0 l/m 0 min 0 min 69 W/m 6,4 km/h (2 Bft) 97,14 %
29.05.2019 19:48 20,5 C 18,3 C 17,8 C 48 % 1021,1 hPa 0,0 l/m 0 min 0 min 71 W/m 6,4 km/h (2 Bft) 98,28 %
29.05.2019 19:50 20,4 C 18,3 C 17,8 C 47 % 1021,1 hPa 0,0 l/m 0 min 0 min 76 W/m 6,4 km/h (2 Bft) 97,87 %
29.05.2019 19:52 20,3 C 18,3 C 17,8 C 48 % 1021,1 hPa 0,0 l/m 0 min 0 min 84 W/m 6,4 km/h (2 Bft) 97,87 %
29.05.2019 19:54 20,2 C 18,3 C 17,8 C 49 % 1021,1 hPa 0,0 l/m 0 min 0 min 79 W/m 6,4 km/h (2 Bft) 97,87 %
29.05.2019 19:56 20,1 C 18,3 C 17,8 C 48 % 1021,1 hPa 0,0 l/m 0 min 0 min 75 W/m 12,9 km/h (3 Bft) 97,30 %
29.05.2019 19:58 20,0 C 18,3 C 17,8 C 48 % 1021,1 hPa 0,0 l/m 0 min 0 min 72 W/m 6,4 km/h (2 Bft) 98,28 %
29.05.2019 20:00 19,9 C 18,3 C 17,8 C 48 % 1021,2 hPa 0,0 l/m 0 min 0 min 71 W/m 3,2 km/h (1 Bft) 100,00 %
29.05.2019 20:02 19,9 C 18,3 C 17,2 C 48 % 1021,2 hPa 0,0 l/m 0 min 0 min 74 W/m 6,4 km/h (2 Bft) 100,00 %
29.05.2019 20:04 19,8 C 18,3 C 17,8 C 48 % 1021,2 hPa 0,0 l/m 0 min 0 min 80 W/m 6,4 km/h (2 Bft) 100,00 %
29.05.2019 20:06 19,8 C 18,3 C 17,2 C 49 % 1021,2 hPa 0,0 l/m 0 min 0 min 82 W/m 6,4 km/h (2 Bft) 97,87 %
29.05.2019 20:08 19,7 C 18,3 C 17,2 C 51 % 1021,2 hPa 0,0 l/m 0 min 0 min 80 W/m 3,2 km/h (1 Bft) 100,00 %
29.05.2019 20:10 19,7 C 18,3 C 17,2 C 51 % 1021,2 hPa 0,0 l/m 0 min 0 min 71 W/m 6,4 km/h (2 Bft) 100,00 %
29.05.2019 20:12 19,6 C 18,3 C 17,2 C 51 % 1021,2 hPa 0,0 l/m 0 min 0 min 63 W/m 6,4 km/h (2 Bft) 100,00 %
29.05.2019 20:14 19,6 C 17,8 C 17,2 C 52 % 1021,1 hPa 0,0 l/m 0 min 0 min 59 W/m 6,4 km/h (2 Bft) 100,00 %
29.05.2019 20:16 19,5 C 17,8 C 17,2 C 52 % 1021,2 hPa 0,0 l/m 0 min 0 min 56 W/m 3,2 km/h (1 Bft) 100,00 %
29.05.2019 20:18 19,4 C 17,8 C 17,2 C 52 % 1021,1 hPa 0,0 l/m 0 min 0 min 53 W/m 6,4 km/h (2 Bft) 100,00 %
29.05.2019 20:20 19,4 C 17,8 C 17,2 C 51 % 1021,2 hPa 0,0 l/m 0 min 0 min 52 W/m 6,4 km/h (2 Bft) 100,00 %
29.05.2019 20:22 19,3 C 17,8 C 17,2 C 50 % 1021,2 hPa 0,0 l/m 0 min 0 min 56 W/m 6,4 km/h (2 Bft) 100,00 %
29.05.2019 20:24 19,3 C 17,8 C 17,2 C 50 % 1021,2 hPa 0,0 l/m 0 min 0 min 58 W/m 6,4 km/h (2 Bft) 100,00 %
29.05.2019 20:26 19,3 C 17,8 C 17,2 C 50 % 1021,2 hPa 0,0 l/m 0 min 0 min 56 W/m 3,2 km/h (1 Bft) 97,83 %
29.05.2019 20:28 19,2 C 17,8 C 16,7 C 50 % 1021,2 hPa 0,0 l/m 0 min 0 min 53 W/m 3,2 km/h (1 Bft) 97,87 %
29.05.2019 20:30 19,2 C 17,8 C 17,2 C 50 % 1021,2 hPa 0,0 l/m 0 min 0 min 53 W/m 9,7 km/h (2 Bft) 100,00 %
29.05.2019 20:32 19,1 C 17,8 C 17,2 C 50 % 1021,2 hPa 0,0 l/m 0 min 0 min 54 W/m 6,4 km/h (2 Bft) 100,00 %
29.05.2019 20:34 19,1 C 17,8 C 17,2 C 50 % 1021,2 hPa 0,0 l/m 0 min 0 min 54 W/m 9,7 km/h (2 Bft) 97,87 %
29.05.2019 20:36 19,1 C 17,8 C 17,2 C 51 % 1021,2 hPa 0,0 l/m 0 min 0 min 54 W/m 6,4 km/h (2 Bft) 100,00 %
29.05.2019 20:38 19,1 C 17,8 C 17,2 C 51 % 1021,2 hPa 0,0 l/m 0 min 0 min 53 W/m 6,4 km/h (2 Bft) 100,00 %
29.05.2019 20:40 19,0 C 17,8 C 17,2 C 52 % 1021,3 hPa 0,0 l/m 0 min 0 min 49 W/m 6,4 km/h (2 Bft) 97,87 %
29.05.2019 20:42 19,0 C 17,8 C 16,7 C 52 % 1021,2 hPa 0,0 l/m 0 min 0 min 42 W/m 6,4 km/h (2 Bft) 97,87 %
29.05.2019 20:44 18,9 C 17,2 C 16,7 C 52 % 1021,2 hPa 0,0 l/m 0 min 0 min 37 W/m 6,4 km/h (2 Bft) 100,00 %
29.05.2019 20:46 18,9 C 17,8 C 17,2 C 52 % 1021,2 hPa 0,0 l/m 0 min 0 min 37 W/m 6,4 km/h (2 Bft) 100,00 %
29.05.2019 20:48 18,9 C 17,8 C 17,2 C 51 % 1021,3 hPa 0,0 l/m 0 min 0 min 36 W/m 6,4 km/h (2 Bft) 97,87 %
29.05.2019 20:50 18,8 C 17,2 C 17,2 C 51 % 1021,2 hPa 0,0 l/m 0 min 0 min 32 W/m 9,7 km/h (2 Bft) 95,65 %
29.05.2019 20:52 18,8 C 17,2 C 16,7 C 52 % 1021,3 hPa 0,0 l/m 0 min 0 min 32 W/m 3,2 km/h (1 Bft) 97,87 %
29.05.2019 20:54 18,7 C 17,2 C 16,7 C 52 % 1021,3 hPa 0,0 l/m 0 min 0 min 31 W/m 6,4 km/h (2 Bft) 93,62 %
29.05.2019 20:56 18,7 C 17,2 C 16,7 C 52 % 1021,3 hPa 0,0 l/m 0 min 0 min 28 W/m 6,4 km/h (2 Bft) 93,62 %
29.05.2019 20:58 18,7 C 17,2 C 16,7 C 51 % 1021,3 hPa 0,0 l/m 0 min 0 min 26 W/m 6,4 km/h (2 Bft) 95,74 %
29.05.2019 21:00 18,7 C 17,2 C 16,7 C 52 % 1021,3 hPa 0,0 l/m 0 min 0 min 25 W/m 3,2 km/h (1 Bft) 95,65 %
29.05.2019 21:02 18,6 C 17,2 C 16,1 C 52 % 1021,2 hPa 0,0 l/m 0 min 0 min 23 W/m 3,2 km/h (1 Bft) 95,74 %
29.05.2019 21:04 18,6 C 16,7 C 15,6 C 54 % 1021,2 hPa 0,0 l/m 0 min 0 min 19 W/m 3,2 km/h (1 Bft) 95,74 %
29.05.2019 21:06 18,6 C 16,7 C 15,6 C 53 % 1021,3 hPa 0,0 l/m 0 min 0 min 18 W/m 3,2 km/h (1 Bft) 93,62 %
29.05.2019 21:08 18,6 C 16,7 C 15,0 C 53 % 1021,2 hPa 0,0 l/m 0 min 0 min 16 W/m 3,2 km/h (1 Bft) 95,74 %
29.05.2019 21:10 18,5 C 16,7 C 15,6 C 52 % 1021,3 hPa 0,0 l/m 0 min 0 min 14 W/m 6,4 km/h (2 Bft) 95,74 %
29.05.2019 21:12 18,4 C 16,7 C 15,6 C 52 % 1021,2 hPa 0,0 l/m 0 min 0 min 12 W/m 6,4 km/h (2 Bft) 93,48 %
29.05.2019 21:14 18,4 C 16,7 C 15,6 C 52 % 1021,2 hPa 0,0 l/m 0 min 0 min 12 W/m 6,4 km/h (2 Bft) 95,74 %
29.05.2019 21:16 18,4 C 16,7 C 15,6 C 52 % 1021,2 hPa 0,0 l/m 0 min 0 min 12 W/m 3,2 km/h (1 Bft) 95,74 %
29.05.2019 21:18 18,3 C 16,7 C 15,6 C 53 % 1021,3 hPa 0,0 l/m 0 min 0 min 11 W/m 3,2 km/h (1 Bft) 95,74 %
29.05.2019 21:20 18,3 C 16,7 C 15,6 C 53 % 1021,3 hPa 0,0 l/m 0 min 0 min 9 W/m 3,2 km/h (1 Bft) 95,74 %
29.05.2019 21:22 18,3 C 16,7 C 15,6 C 53 % 1021,3 hPa 0,0 l/m 0 min 0 min 7 W/m 0,0 km/h (0 Bft) 95,74 %
29.05.2019 21:24 18,3 C 16,7 C 15,0 C 53 % 1021,3 hPa 0,0 l/m 0 min 0 min 6 W/m 0,0 km/h (0 Bft) 93,48 %
29.05.2019 21:26 18,2 C 16,7 C 15,0 C 53 % 1021,3 hPa 0,0 l/m 0 min 0 min 5 W/m 6,4 km/h (2 Bft) 95,74 %
29.05.2019 21:28 18,2 C 16,7 C 15,0 C 54 % 1021,4 hPa 0,0 l/m 0 min 0 min 5 W/m 3,2 km/h (1 Bft) 95,74 %
29.05.2019 21:30 18,2 C 16,7 C 15,0 C 54 % 1021,3 hPa 0,0 l/m 0 min 0 min 5 W/m 3,2 km/h (1 Bft) 91,49 %
29.05.2019 21:32 18,1 C 16,7 C 15,0 C 54 % 1021,4 hPa 0,0 l/m 0 min 0 min 2 W/m 3,2 km/h (1 Bft) 97,87 %
29.05.2019 21:34 18,1 C 16,7 C 15,0 C 54 % 1021,3 hPa 0,0 l/m 0 min 0 min 0 W/m 3,2 km/h (1 Bft) 95,74 %
29.05.2019 21:36 18,1 C 16,7 C 15,0 C 54 % 1021,3 hPa 0,0 l/m 0 min 0 min 0 W/m 3,2 km/h (1 Bft) 97,83 %
29.05.2019 21:38 18,0 C 16,7 C 15,0 C 55 % 1021,4 hPa 0,0 l/m 0 min 0 min 0 W/m 6,4 km/h (2 Bft) 100,00 %
29.05.2019 21:40 18,0 C 16,7 C 15,0 C 55 % 1021,4 hPa 0,0 l/m 0 min 0 min 0 W/m 3,2 km/h (1 Bft) 97,87 %
29.05.2019 21:42 18,0 C 16,7 C 15,0 C 55 % 1021,4 hPa 0,0 l/m 0 min 0 min 0 W/m 3,2 km/h (1 Bft) 95,74 %
29.05.2019 21:44 17,9 C 16,1 C 15,0 C 55 % 1021,5 hPa 0,0 l/m 0 min 0 min 0 W/m 3,2 km/h (1 Bft) 100,00 %
29.05.2019 21:46 17,9 C 16,1 C 14,4 C 55 % 1021,4 hPa 0,0 l/m 0 min 0 min 0 W/m 6,4 km/h (2 Bft) 100,00 %
29.05.2019 21:48 17,9 C 16,7 C 14,4 C 55 % 1021,4 hPa 0,0 l/m 0 min 0 min 0 W/m 6,4 km/h (2 Bft) 97,87 %
29.05.2019 21:50 17,8 C 16,7 C 14,4 C 55 % 1021,4 hPa 0,0 l/m 0 min 0 min 0 W/m 6,4 km/h (2 Bft) 100,00 %
29.05.2019 21:52 17,8 C 16,7 C 14,4 C 55 % 1021,4 hPa 0,0 l/m 0 min 0 min 0 W/m 6,4 km/h (2 Bft) 97,87 %
29.05.2019 21:54 17,8 C 16,7 C 14,4 C 55 % 1021,5 hPa 0,0 l/m 0 min 0 min 0 W/m 3,2 km/h (1 Bft) 100,00 %
29.05.2019 21:56 17,7 C 16,1 C 14,4 C 55 % 1021,5 hPa 0,0 l/m 0 min 0 min 0 W/m 3,2 km/h (1 Bft) 97,87 %
29.05.2019 21:58 17,7 C 16,1 C 13,9 C 55 % 1021,5 hPa 0,0 l/m 0 min 0 min 0 W/m 3,2 km/h (1 Bft) 100,00 %
29.05.2019 22:00 17,7 C 16,1 C 13,9 C 56 % 1021,6 hPa 0,0 l/m 0 min 0 min 0 W/m 0,0 km/h (0 Bft) 100,00 %
29.05.2019 22:02 17,6 C 16,1 C 13,9 C 56 % 1021,6 hPa 0,0 l/m 0 min 0 min 0 W/m 3,2 km/h (1 Bft) 97,87 %
29.05.2019 22:04 17,6 C 16,1 C 14,4 C 56 % 1021,6 hPa 0,0 l/m 0 min 0 min 0 W/m 3,2 km/h (1 Bft) 100,00 %
29.05.2019 22:06 17,6 C 16,1 C 14,4 C 56 % 1021,6 hPa 0,0 l/m 0 min 0 min 0 W/m 3,2 km/h (1 Bft) 100,00 %
29.05.2019 22:08 17,6 C 16,1 C 14,4 C 56 % 1021,7 hPa 0,0 l/m 0 min 0 min 0 W/m 3,2 km/h (1 Bft) 100,00 %
29.05.2019 22:10 17,5 C 16,1 C 14,4 C 56 % 1021,6 hPa 0,0 l/m 0 min 0 min 0 W/m 3,2 km/h (1 Bft) 100,00 %
29.05.2019 22:12 17,5 C 16,1 C 14,4 C 57 % 1021,6 hPa 0,0 l/m 0 min 0 min 0 W/m 3,2 km/h (1 Bft) 100,00 %
29.05.2019 22:14 17,4 C 16,1 C 14,4 C 57 % 1021,6 hPa 0,0 l/m 0 min 0 min 0 W/m 3,2 km/h (1 Bft) 100,00 %
29.05.2019 22:16 17,4 C 16,1 C 14,4 C 57 % 1021,6 hPa 0,0 l/m 0 min 0 min 0 W/m 3,2 km/h (1 Bft) 100,00 %
29.05.2019 22:18 17,4 C 16,1 C 14,4 C 57 % 1021,7 hPa 0,0 l/m 0 min 0 min 0 W/m 6,4 km/h (2 Bft) 100,00 %
29.05.2019 22:20 17,4 C 16,1 C 14,4 C 57 % 1021,7 hPa 0,0 l/m 0 min 0 min 0 W/m 6,4 km/h (2 Bft) 97,87 %
29.05.2019 22:22 17,3 C 16,1 C 14,4 C 58 % 1021,8 hPa 0,0 l/m 0 min 0 min 0 W/m 6,4 km/h (2 Bft) 100,00 %
29.05.2019 22:24 17,3 C 16,1 C 14,4 C 58 % 1021,7 hPa 0,0 l/m 0 min 0 min 0 W/m 6,4 km/h (2 Bft) 100,00 %
29.05.2019 22:26 17,3 C 16,1 C 15,0 C 58 % 1021,7 hPa 0,0 l/m 0 min 0 min 0 W/m 3,2 km/h (1 Bft) 97,87 %
29.05.2019 22:28 17,3 C 16,1 C 15,0 C 58 % 1021,7 hPa 0,0 l/m 0 min 0 min 0 W/m 6,4 km/h (2 Bft) 100,00 %
29.05.2019 22:30 17,3 C 16,1 C 15,0 C 58 % 1021,6 hPa 0,0 l/m 0 min 0 min 0 W/m 6,4 km/h (2 Bft) 100,00 %
29.05.2019 22:32 17,2 C 16,1 C 15,0 C 58 % 1021,7 hPa 0,0 l/m 0 min 0 min 0 W/m 6,4 km/h (2 Bft) 97,87 %
29.05.2019 22:34 17,2 C 16,1 C 15,0 C 59 % 1021,6 hPa 0,0 l/m 0 min 0 min 0 W/m 6,4 km/h (2 Bft) 97,87 %
29.05.2019 22:36 17,2 C 16,1 C 15,0 C 59 % 1021,6 hPa 0,0 l/m 0 min 0 min 0 W/m 6,4 km/h (2 Bft) 97,87 %
29.05.2019 22:38 17,2 C 15,6 C 15,0 C 59 % 1021,7 hPa 0,0 l/m 0 min 0 min 0 W/m 3,2 km/h (1 Bft) 97,87 %
29.05.2019 22:40 17,1 C 15,6 C 15,0 C 59 % 1021,6 hPa 0,0 l/m 0 min 0 min 0 W/m 3,2 km/h (1 Bft) 97,83 %
29.05.2019 22:42 17,1 C 15,6 C 14,4 C 59 % 1021,6 hPa 0,0 l/m 0 min 0 min 0 W/m 6,4 km/h (2 Bft) 97,87 %
29.05.2019 22:44 17,1 C 15,6 C 14,4 C 59 % 1021,6 hPa 0,0 l/m 0 min 0 min 0 W/m 6,4 km/h (2 Bft) 95,74 %
29.05.2019 22:46 17,1 C 15,6 C 14,4 C 59 % 1021,6 hPa 0,0 l/m 0 min 0 min 0 W/m 6,4 km/h (2 Bft) 97,87 %
29.05.2019 22:48 17,1 C 15,6 C 13,9 C 59 % 1021,6 hPa 0,0 l/m 0 min 0 min 0 W/m 3,2 km/h (1 Bft) 97,87 %
29.05.2019 22:50 17,0 C 15,0 C 13,9 C 59 % 1021,7 hPa 0,0 l/m 0 min 0 min 0 W/m 3,2 km/h (1 Bft) 95,65 %
29.05.2019 22:52 17,0 C 15,0 C 13,3 C 60 % 1021,6 hPa 0,0 l/m 0 min 0 min 0 W/m 3,2 km/h (1 Bft) 95,74 %
29.05.2019 22:54 16,9 C 15,0 C 13,3 C 60 % 1021,6 hPa 0,0 l/m 0 min 0 min 0 W/m 0,0 km/h (0 Bft) 97,87 %
29.05.2019 22:56 16,9 C 14,4 C 12,8 C 60 % 1021,6 hPa 0,0 l/m 0 min 0 min 0 W/m 0,0 km/h (0 Bft) 95,74 %
29.05.2019 22:58 16,9 C 14,4 C 12,8 C 61 % 1021,6 hPa 0,0 l/m 0 min 0 min 0 W/m 3,2 km/h (1 Bft) 97,87 %
29.05.2019 23:00 16,8 C 14,4 C 12,8 C 60 % 1021,6 hPa 0,0 l/m 0 min 0 min 0 W/m 3,2 km/h (1 Bft) 97,87 %
29.05.2019 23:02 16,8 C 14,4 C 12,8 C 60 % 1021,7 hPa 0,0 l/m 0 min 0 min 0 W/m 3,2 km/h (1 Bft) 97,83 %
29.05.2019 23:04 16,7 C 14,4 C 12,8 C 60 % 1021,7 hPa 0,0 l/m 0 min 0 min 0 W/m 6,4 km/h (2 Bft) 97,87 %
29.05.2019 23:06 16,7 C 14,4 C 12,2 C 60 % 1021,6 hPa 0,0 l/m 0 min 0 min 0 W/m 3,2 km/h (1 Bft) 91,49 %
29.05.2019 23:08 16,7 C 14,4 C 12,8 C 60 % 1021,6 hPa 0,0 l/m 0 min 0 min 0 W/m 3,2 km/h (1 Bft) 97,37 %
29.05.2019 23:10 16,6 C 15,0 C 12,8 C 61 % 1021,6 hPa 0,0 l/m 0 min 0 min 0 W/m 6,4 km/h (2 Bft) 95,74 %
29.05.2019 23:12 16,6 C 14,4 C 12,8 C 61 % 1021,7 hPa 0,0 l/m 0 min 0 min 0 W/m 3,2 km/h (1 Bft) 97,87 %
29.05.2019 23:14 16,5 C 14,4 C 12,8 C 61 % 1021,7 hPa 0,0 l/m 0 min 0 min 0 W/m 3,2 km/h (1 Bft) 95,74 %
29.05.2019 23:16 16,4 C 14,4 C 12,8 C 61 % 1021,7 hPa 0,0 l/m 0 min 0 min 0 W/m 3,2 km/h (1 Bft) 95,65 %
29.05.2019 23:18 16,4 C 14,4 C 12,8 C 61 % 1021,7 hPa 0,0 l/m 0 min 0 min 0 W/m 3,2 km/h (1 Bft) 95,74 %
29.05.2019 23:20 16,4 C 14,4 C 12,8 C 61 % 1021,8 hPa 0,0 l/m 0 min 0 min 0 W/m 3,2 km/h (1 Bft) 93,62 %
29.05.2019 23:22 16,3 C 14,4 C 12,8 C 61 % 1021,7 hPa 0,0 l/m 0 min 0 min 0 W/m 3,2 km/h (1 Bft) 97,87 %
29.05.2019 23:24 16,3 C 14,4 C 12,8 C 61 % 1021,7 hPa 0,0 l/m 0 min 0 min 0 W/m 3,2 km/h (1 Bft) 97,87 %
29.05.2019 23:26 16,2 C 14,4 C 12,8 C 62 % 1021,6 hPa 0,0 l/m 0 min 0 min 0 W/m 6,4 km/h (2 Bft) 95,74 %
29.05.2019 23:28 16,2 C 14,4 C 12,8 C 62 % 1021,7 hPa 0,0 l/m 0 min 0 min 0 W/m 3,2 km/h (1 Bft) 95,65 %
29.05.2019 23:30 16,2 C 14,4 C 12,8 C 62 % 1021,7 hPa 0,0 l/m 0 min 0 min 0 W/m 3,2 km/h (1 Bft) 95,74 %
29.05.2019 23:32 16,1 C 14,4 C 12,8 C 62 % 1021,7 hPa 0,0 l/m 0 min 0 min 0 W/m 3,2 km/h (1 Bft) 95,74 %
29.05.2019 23:34 16,1 C 14,4 C 12,8 C 63 % 1021,7 hPa 0,0 l/m 0 min 0 min 0 W/m 3,2 km/h (1 Bft) 95,74 %
29.05.2019 23:36 16,0 C 14,4 C 12,8 C 63 % 1021,8 hPa 0,0 l/m 0 min 0 min 0 W/m 3,2 km/h (1 Bft) 94,83 %
29.05.2019 23:38 16,0 C 14,4 C 13,3 C 63 % 1021,8 hPa 0,0 l/m 0 min 0 min 0 W/m 3,2 km/h (1 Bft) 97,22 %
29.05.2019 23:40 15,9 C 14,4 C 13,3 C 63 % 1021,7 hPa 0,0 l/m 0 min 0 min 0 W/m 3,2 km/h (1 Bft) 95,65 %
29.05.2019 23:42 15,9 C 14,4 C 13,3 C 64 % 1021,7 hPa 0,0 l/m 0 min 0 min 0 W/m 6,4 km/h (2 Bft) 93,62 %
29.05.2019 23:44 15,8 C 14,4 C 13,3 C 64 % 1021,8 hPa 0,0 l/m 0 min 0 min 0 W/m 3,2 km/h (1 Bft) 97,87 %
29.05.2019 23:46 15,8 C 14,4 C 13,3 C 64 % 1021,7 hPa 0,0 l/m 0 min 0 min 0 W/m 6,4 km/h (2 Bft) 97,87 %
29.05.2019 23:48 15,8 C 14,4 C 13,9 C 64 % 1021,7 hPa 0,0 l/m 0 min 0 min 0 W/m 6,4 km/h (2 Bft) 93,62 %
29.05.2019 23:50 15,7 C 14,4 C 13,3 C 64 % 1021,8 hPa 0,0 l/m 0 min 0 min 0 W/m 3,2 km/h (1 Bft) 93,62 %
29.05.2019 23:52 15,7 C 14,4 C 13,3 C 64 % 1021,8 hPa 0,0 l/m 0 min 0 min 0 W/m 3,2 km/h (1 Bft) 95,65 %
29.05.2019 23:54 15,7 C 14,4 C 13,3 C 65 % 1021,7 hPa 0,0 l/m 0 min 0 min 0 W/m 6,4 km/h (2 Bft) 95,74 %
29.05.2019 23:56 15,6 C 14,4 C 13,9 C 65 % 1021,7 hPa 0,0 l/m 0 min 0 min 0 W/m 6,4 km/h (2 Bft) 100,00 %
29.05.2019 23:58 15,6 C 14,4 C 13,3 C 65 % 1021,8 hPa 0,0 l/m 0 min 0 min 0 W/m 6,4 km/h (2 Bft) 95,74 %
_ Min-Zeit 06:10 05:24 04:52 15:28 00:00 - - - - 00:18 00:02
Minimum _ 5,4 C 3,9 C 3,9 C 40 % 1016,4 hPa - - - - 0,0 km/h (0 Bft) 20,00 %
_ Max-Zeit 18:26 14:20 14:20 08:10 12:28 00:16 12:08 00:00 13:52 14:50 01:18
Maximum _ 21,6 C 27,8 C 30,6 C 96 % 1022,4 hPa 0,2 l/m 4 min 0 min 979 W/m 25,7 km/h
O (4 Bft)
100,00 %
Durchschnitt _ 14,6 C 15,8 C 15,4 C 66 % 1020,7 hPa #0,2 l/m #10:24 h #0 min. 503 W/m 5,9 km/h (2 Bft) 97,39 %
© 2019 W. Hausmann